PORTS® Data Listing: 8770777 Manchester, TX

CO-OPS RAW PORTS DATA

************************      PRELIMINARY DATA      ************************** 

     THIS RAW DATA HAS NOT BEEN SUBJECT TO THE NATIONAL OCEAN SERVICE'S        
     QUALITY CONTROL OR QUALITY ASSURANCE PROCEDURES AND DOES NOT MEET         
     THE CRITERIA AND STANDARDS OF OFFICIAL NATIONAL OCEAN SERVICE             
     DATA.  IT IS RELEASED FOR LIMITED PUBLIC USE AS PRELIMINARY DATA TO       
     BE USED ONLY WITH APPROPRIATE CAUTION.                                    

************************      PRELIMINARY DATA      ************************** 


       CD   -   Calendar date
       T    -   Time
       TZ   -   Timezone
       PW   -   Predicted water level (feet above MLLW)
       OW   -   Observed water level (feet above MLLW)
       WS   -   Wind speed (knots)
       WD   -   Wind direction (degrees true)
       WG   -   Wind gust (knots)
       AT   -   Air temperature (degrees farenheit)
       WT   -   Water temperature (degrees farenheit)
       AP   -   Air pressure (millibars)
       SA   -   Salinty (PSU - Practical Salinity Units)
       SG   -   Specific gravity
       RH   -   Relative humidity
       AG   -   Air gap (feet)
       VI   -   Visibility (nautical miles)

       ** NOTE **
       A variable that has its data fields filled with "9"s, indicates that
       data was not collected for that sample period.
       **********


STATION NAME: Manchester (8770777)
****************************************************************************************************
    CD       T    TZ    PW     OW    WS   WD   WG    AT    WT    AP    SA    SG     RH    AG   VI
****************************************************************************************************
2019/11/16 23:30 CST    1.65   1.94    2  261    2  51.1  61.5 1019.1 -9.9 -9.999 -99.9 -99.99 -9.99
2019/11/16 23:36 CST    1.67   1.97    2  263    3  50.9  61.5 1019.2 -9.9 -9.999 -99.9 -99.99 -9.99
2019/11/16 23:42 CST    1.70   1.97    2  257    3  50.4  61.5 1019.1 -9.9 -9.999 -99.9 -99.99 -9.99
2019/11/16 23:48 CST    1.72   1.99    3  287    4  49.1  61.5 1019.1 -9.9 -9.999 -99.9 -99.99 -9.99
2019/11/16 23:54 CST    1.74   1.99    2  274    4  49.1  61.5 1019.2 -9.9 -9.999 -99.9 -99.99 -9.99
2019/11/17 00:00 CST    1.76   2.00    3  290    4  48.6  61.5 1019.2 -9.9 -9.999 -99.9 -99.99 -9.99
2019/11/17 00:06 CST    1.78   2.01    3  285    3  48.4  61.5 1019.1 -9.9 -9.999 -99.9 -99.99 -9.99
2019/11/17 00:12 CST    1.79   2.01    2  282    4  48.6  61.5 1019.1 -9.9 -9.999 -99.9 -99.99 -9.99
2019/11/17 00:18 CST    1.81   2.01    2  279    3  48.6  61.5 1019.1 -9.9 -9.999 -99.9 -99.99 -9.99
2019/11/17 00:24 CST    1.82   2.01    0  307    3  48.6  61.5 1019.0 -9.9 -9.999 -99.9 -99.99 -9.99
2019/11/17 00:30 CST    1.84   2.01    1  290    2  48.9  61.5 1018.9 -9.9 -9.999 -99.9 -99.99 -9.99
2019/11/17 00:36 CST    1.85   2.04    2  268    3  49.3  61.5 1019.0 -9.9 -9.999 -99.9 -99.99 -9.99
2019/11/17 00:42 CST    1.86   2.02    2  264    3  49.3  61.5 1019.0 -9.9 -9.999 -99.9 -99.99 -9.99
2019/11/17 00:48 CST    1.87   2.05    0  171    2  49.6  61.5 1018.8 -9.9 -9.999 -99.9 -99.99 -9.99
2019/11/17 00:54 CST    1.88   2.03    2  268    2  49.5  61.5 1018.8 -9.9 -9.999 -99.9 -99.99 -9.99
2019/11/17 01:00 CST    1.89   2.02    2  272    4  49.3  61.5 1018.9 -9.9 -9.999 -99.9 -99.99 -9.99
2019/11/17 01:06 CST    1.89   2.05    3  267    4  49.1  61.5 1019.0 -9.9 -9.999 -99.9 -99.99 -9.99
2019/11/17 01:12 CST    1.90   2.05    3  284    4  48.7  61.5 1019.0 -9.9 -9.999 -99.9 -99.99 -9.99
2019/11/17 01:18 CST    1.90   2.06    2  270    3  48.7  61.5 1018.9 -9.9 -9.999 -99.9 -99.99 -9.99
2019/11/17 01:24 CST    1.91   2.07    2  271    3  48.9  61.5 1018.9 -9.9 -9.999 -99.9 -99.99 -9.99
2019/11/17 01:30 CST    1.91   2.05    2  276    4  48.6  61.5 1018.8 -9.9 -9.999 -99.9 -99.99 -9.99
2019/11/17 01:36 CST    1.91   2.04    3  266    4  48.9  61.5 1018.7 -9.9 -9.999 -99.9 -99.99 -9.99
2019/11/17 01:42 CST    1.91   2.07    2  272    4  48.6  61.5 1018.8 -9.9 -9.999 -99.9 -99.99 -9.99
2019/11/17 01:48 CST    1.91   2.06    3  277    4  48.2  61.5 1018.9 -9.9 -9.999 -99.9 -99.99 -9.99
2019/11/17 01:54 CST    1.91   2.07    2  271    4  48.6  61.5 1018.9 -9.9 -9.999 -99.9 -99.99 -9.99
2019/11/17 02:00 CST    1.91   2.07    2  262    5  48.7  61.5 1019.0 -9.9 -9.999 -99.9 -99.99 -9.99
2019/11/17 02:06 CST    1.91   2.08    1  267    3  48.7  61.5 1018.9 -9.9 -9.999 -99.9 -99.99 -9.99
2019/11/17 02:12 CST    1.91   2.08    2  279    3  48.4  61.5 1019.0 -9.9 -9.999 -99.9 -99.99 -9.99
2019/11/17 02:18 CST    1.91   2.09    2  283    3  48.4  61.5 1018.9 -9.9 -9.999 -99.9 -99.99 -9.99
2019/11/17 02:24 CST    1.91   2.09    1  303    3  48.4  61.7 1018.7 -9.9 -9.999 -99.9 -99.99 -9.99
2019/11/17 02:30 CST    1.91   2.08    1  307    2  48.6  61.7 1018.6 -9.9 -9.999 -99.9 -99.99 -9.99
2019/11/17 02:36 CST    1.90   2.11    2  301    2  48.7  61.7 1018.6 -9.9 -9.999 -99.9 -99.99 -9.99
2019/11/17 02:42 CST    1.90   2.10    2  284    2  48.6  61.7 1018.6 -9.9 -9.999 -99.9 -99.99 -9.99
2019/11/17 02:48 CST    1.90   2.08    0  295    2  48.6  61.7 1018.5 -9.9 -9.999 -99.9 -99.99 -9.99
2019/11/17 02:54 CST    1.89   2.08    0  294    0  48.6  61.7 1018.3 -9.9 -9.999 -99.9 -99.99 -9.99
2019/11/17 03:00 CST    1.89   2.10    1   54    2  48.6  61.7 1018.1 -9.9 -9.999 -99.9 -99.99 -9.99
2019/11/17 03:06 CST    1.89   2.08    2   29    2  48.2  61.7 1018.2 -9.9 -9.999 -99.9 -99.99 -9.99
2019/11/17 03:12 CST    1.88   2.08    1   18    2  48.0  61.7 1018.3 -9.9 -9.999 -99.9 -99.99 -9.99
2019/11/17 03:18 CST    1.88   2.09    1   26    2  47.8  61.7 1018.3 -9.9 -9.999 -99.9 -99.99 -9.99
2019/11/17 03:24 CST    1.87   2.09    2   39    2  47.5  61.7 1018.3 -9.9 -9.999 -99.9 -99.99 -9.99
2019/11/17 03:30 CST    1.87   2.10    2   31    2  47.3  61.7 1018.4 -9.9 -9.999 -99.9 -99.99 -9.99
2019/11/17 03:36 CST    1.86   2.10    2   30    3  46.9  61.7 1018.4 -9.9 -9.999 -99.9 -99.99 -9.99
2019/11/17 03:42 CST    1.85   2.09    2    9    2  47.1  61.7 1018.5 -9.9 -9.999 -99.9 -99.99 -9.99
2019/11/17 03:48 CST    1.85   2.10    1   14    3  46.9  61.7 1018.6 -9.9 -9.999 -99.9 -99.99 -9.99
2019/11/17 03:54 CST    1.84   2.09    2    3    3  46.6  61.7 1018.6 -9.9 -9.999 -99.9 -99.99 -9.99
2019/11/17 04:00 CST    1.84   2.09    1   14    3  46.0  61.7 1018.5 -9.9 -9.999 -99.9 -99.99 -9.99
2019/11/17 04:06 CST    1.83   2.10    2   63    2  46.6  61.7 1018.3 -9.9 -9.999 -99.9 -99.99 -9.99
2019/11/17 04:12 CST    1.82   2.11    3  102    4  46.9  61.7 1018.0 -9.9 -9.999 -99.9 -99.99 -9.99
2019/11/17 04:18 CST    1.82   2.11    2   81    4  47.7  61.7 1018.0 -9.9 -9.999 -99.9 -99.99 -9.99
2019/11/17 04:24 CST    1.81   2.11    1  357    3  47.7  61.7 1018.1 -9.9 -9.999 -99.9 -99.99 -9.99
2019/11/17 04:30 CST    1.80   2.10    2  352    2  47.1  61.7 1018.1 -9.9 -9.999 -99.9 -99.99 -9.99
2019/11/17 04:36 CST    1.80   2.09    2    0    3  47.1  61.7 1018.2 -9.9 -9.999 -99.9 -99.99 -9.99
2019/11/17 04:42 CST    1.79   2.10    1   15    2  46.6  61.7 1018.0 -9.9 -9.999 -99.9 -99.99 -9.99
2019/11/17 04:48 CST    1.79   2.10    1   16    2  46.8  61.7 1018.0 -9.9 -9.999 -99.9 -99.99 -9.99
2019/11/17 04:54 CST    1.78   2.10    1  317    2  46.2  61.7 1018.1 -9.9 -9.999 -99.9 -99.99 -9.99
2019/11/17 05:00 CST    1.77   2.10    2  346    2  46.2  61.7 1018.0 -9.9 -9.999 -99.9 -99.99 -9.99
2019/11/17 05:06 CST    1.77   2.10    1  322    2  46.0  61.7 1018.0 -9.9 -9.999 -99.9 -99.99 -9.99
2019/11/17 05:12 CST    1.76   2.12    1   14    2  46.4  61.7 1017.9 -9.9 -9.999 -99.9 -99.99 -9.99
2019/11/17 05:18 CST    1.76   2.11    1    5    2  46.6  61.7 1018.0 -9.9 -9.999 -99.9 -99.99 -9.99
2019/11/17 05:24 CST    1.75   2.11    2  307    2  45.7  61.7 1018.1 -9.9 -9.999 -99.9 -99.99 -9.99
2019/11/17 05:30 CST    1.74   2.12    2  323    2  45.5  61.7 1018.1 -9.9 -9.999 -99.9 -99.99 -9.99
2019/11/17 05:36 CST    1.74   2.12    2   25    3  45.5  61.7 1018.0 -9.9 -9.999 -99.9 -99.99 -9.99
2019/11/17 05:42 CST    1.73   2.11    1  354    2  45.3  61.7 1018.0 -9.9 -9.999 -99.9 -99.99 -9.99
2019/11/17 05:48 CST    1.72   2.12    0  256    1  45.5  61.7 1017.9 -9.9 -9.999 -99.9 -99.99 -9.99
2019/11/17 05:54 CST    1.72   2.12    2  327    2  45.1  61.7 1017.9 -9.9 -9.999 -99.9 -99.99 -9.99
2019/11/17 06:00 CST    1.71   2.13    3  353    4  45.1  61.7 1017.9 -9.9 -9.999 -99.9 -99.99 -9.99
2019/11/17 06:06 CST    1.70   2.13    2  342    3  45.1  61.7 1018.0 -9.9 -9.999 -99.9 -99.99 -9.99
2019/11/17 06:12 CST    1.70   2.13    1  344    2  45.5  61.7 1018.1 -9.9 -9.999 -99.9 -99.99 -9.99
2019/11/17 06:18 CST    1.69   2.14    2   15    3  45.7  61.7 1018.0 -9.9 -9.999 -99.9 -99.99 -9.99
2019/11/17 06:24 CST    1.68   2.14    1  351    3  45.0  61.7 1018.0 -9.9 -9.999 -99.9 -99.99 -9.99
2019/11/17 06:30 CST    1.67   2.13    1  347    2  44.6  61.7 1018.1 -9.9 -9.999 -99.9 -99.99 -9.99
2019/11/17 06:36 CST    1.67   2.15    2  326    2  44.1  61.7 1018.1 -9.9 -9.999 -99.9 -99.99 -9.99
2019/11/17 06:42 CST    1.66   2.15    1  334    2  44.4  61.7 1018.2 -9.9 -9.999 -99.9 -99.99 -9.99
2019/11/17 06:48 CST    1.65   2.14    2    4    2  44.8  61.7 1018.1 -9.9 -9.999 -99.9 -99.99 -9.99
2019/11/17 06:54 CST    1.64   2.14    1  342    3  45.0  61.7 1018.3 -9.9 -9.999 -99.9 -99.99 -9.99
2019/11/17 07:00 CST    1.63   2.14    2  346    3  45.0  61.7 1018.4 -9.9 -9.999 -99.9 -99.99 -9.99
2019/11/17 07:06 CST    1.63   2.14    2  337    3  45.1  61.7 1018.5 -9.9 -9.999 -99.9 -99.99 -9.99
2019/11/17 07:12 CST    1.62   2.14    1  324    2  45.1  61.7 1018.5 -9.9 -9.999 -99.9 -99.99 -9.99
2019/11/17 07:18 CST    1.61   2.13    1  337    2  45.7  61.7 1018.6 -9.9 -9.999 -99.9 -99.99 -9.99
2019/11/17 07:24 CST    1.60   2.18    2  299    2  45.5  61.9 1018.7 -9.9 -9.999 -99.9 -99.99 -9.99
2019/11/17 07:30 CST    1.59   2.12    1  266    2  45.9  61.9 1018.7 -9.9 -9.999 -99.9 -99.99 -9.99
2019/11/17 07:36 CST    1.59   2.11    1  287    1  46.2  61.9 1018.9 -9.9 -9.999 -99.9 -99.99 -9.99
2019/11/17 07:42 CST    1.58   2.14    2  318    2  46.2  61.9 1018.9 -9.9 -9.999 -99.9 -99.99 -9.99
2019/11/17 07:48 CST    1.57   2.05    1  312    2  47.1  61.9 1019.1 -9.9 -9.999 -99.9 -99.99 -9.99
2019/11/17 07:54 CST    1.57   2.04    2  320    3  47.3  61.9 1019.1 -9.9 -9.999 -99.9 -99.99 -9.99
2019/11/17 08:00 CST    1.56   2.07    2  317    3  47.5  61.9 1019.2 -9.9 -9.999 -99.9 -99.99 -9.99
2019/11/17 08:06 CST    1.55   2.06    2  321    2  47.8  61.9 1019.1 -9.9 -9.999 -99.9 -99.99 -9.99
2019/11/17 08:12 CST    1.55   2.07    2  313    2  48.0  62.1 1019.2 -9.9 -9.999 -99.9 -99.99 -9.99
2019/11/17 08:18 CST    1.54   2.08    2  306    3  48.2  61.9 1019.3 -9.9 -9.999 -99.9 -99.99 -9.99
2019/11/17 08:24 CST    1.53   2.06    3  324    4  48.4  61.9 1019.5 -9.9 -9.999 -99.9 -99.99 -9.99
2019/11/17 08:30 CST    1.53   2.02    3  322    3  48.7  61.9 1019.5 -9.9 -9.999 -99.9 -99.99 -9.99
2019/11/17 08:36 CST    1.52   2.02    2  320    3  49.5  61.9 1019.5 -9.9 -9.999 -99.9 -99.99 -9.99
2019/11/17 08:42 CST    1.51   2.00    2  308    3  49.8  61.9 1019.5 -9.9 -9.999 -99.9 -99.99 -9.99
2019/11/17 08:48 CST    1.51   1.98    3  314    4  50.2  61.9 1019.5 -9.9 -9.999 -99.9 -99.99 -9.99
2019/11/17 08:54 CST    1.50   1.98    2  319    3  50.9  61.9 1019.5 -9.9 -9.999 -99.9 -99.99 -9.99
2019/11/17 09:00 CST    1.49   1.96    2  293    2  52.0  61.9 1019.3 -9.9 -9.999 -99.9 -99.99 -9.99
2019/11/17 09:06 CST    1.48   1.95    1  235    2  54.7  61.9 1019.3 -9.9 -9.999 -99.9 -99.99 -9.99
2019/11/17 09:12 CST    1.47   1.95    0  190    1  54.9  61.9 1019.3 -9.9 -9.999 -99.9 -99.99 -9.99
2019/11/17 09:18 CST    1.47   1.91    0  344    2  55.6  61.7 1019.3 -9.9 -9.999 -99.9 -99.99 -9.99
2019/11/17 09:24 CST    1.46   1.90    2   50    2  54.7  61.7 1019.3 -9.9 -9.999 -99.9 -99.99 -9.99
2019/11/17 09:30 CST    1.45   1.88    1   32    2  55.0  61.7 1019.3 -9.9 -9.999 -99.9 -99.99 -9.99
2019/11/17 09:36 CST    1.44   1.87    2   42    3  55.8  61.7 1019.3 -9.9 -9.999 -99.9 -99.99 -9.99
2019/11/17 09:42 CST    1.42   1.86    1   82    2  56.5  61.7 1019.2 -9.9 -9.999 -99.9 -99.99 -9.99
2019/11/17 09:48 CST    1.41   1.82    2   16    2  56.1  61.7 1019.2 -9.9 -9.999 -99.9 -99.99 -9.99
2019/11/17 09:54 CST    1.40   1.80    1   13    2  56.8  61.7 1019.2 -9.9 -9.999 -99.9 -99.99 -9.99
2019/11/17 10:00 CST    1.39   1.78    1   93    2  57.7  61.7 1019.1 -9.9 -9.999 -99.9 -99.99 -9.99
2019/11/17 10:06 CST    1.37   1.78    1   65    2  58.3  61.7 1019.0 -9.9 -9.999 -99.9 -99.99 -9.99
2019/11/17 10:12 CST    1.36   1.75    2   72    4  58.3  61.7 1019.0 -9.9 -9.999 -99.9 -99.99 -9.99
2019/11/17 10:18 CST    1.35   1.75    0  101    3  59.0  61.7 1018.8 -9.9 -9.999 -99.9 -99.99 -9.99
2019/11/17 10:24 CST    1.33   1.78    2   69    3  58.5  61.7 1018.8 -9.9 -9.999 -99.9 -99.99 -9.99
2019/11/17 10:30 CST    1.32   1.71    2   88    3  58.5  61.7 1018.6 -9.9 -9.999 -99.9 -99.99 -9.99
2019/11/17 10:36 CST    1.30   1.67    1   38    3  59.5  61.7 1018.5 -9.9 -9.999 -99.9 -99.99 -9.99
2019/11/17 10:42 CST    1.28   1.65    2   15    4  59.4  61.7 1018.6 -9.9 -9.999 -99.9 -99.99 -9.99
2019/11/17 10:48 CST    1.27   1.63    2   18    4  59.5  61.7 1018.5 -9.9 -9.999 -99.9 -99.99 -9.99
2019/11/17 10:54 CST    1.25   1.61    1  341    4  60.4  61.7 1018.4 -9.9 -9.999 -99.9 -99.99 -9.99
2019/11/17 11:00 CST    1.23   1.58    3   43    5  61.0  61.7 1018.3 -9.9 -9.999 -99.9 -99.99 -9.99
2019/11/17 11:06 CST    1.22   1.53    1   12    4  61.0  61.7 1018.2 -9.9 -9.999 -99.9 -99.99 -9.99
2019/11/17 11:12 CST    1.20   1.48    2  356    3  61.3  61.7 1018.1 -9.9 -9.999 -99.9 -99.99 -9.99
2019/11/17 11:18 CST    1.18   1.48    2  339    3  61.2  61.7 1018.0 -9.9 -9.999 -99.9 -99.99 -9.99
2019/11/17 11:24 CST    1.16   1.43    0  284    3  63.0  61.7 1018.0 -9.9 -9.999 -99.9 -99.99 -9.99
2019/11/17 11:30 CST    1.14   1.42    1   61    2  63.5  61.7 1018.0 -9.9 -9.999 -99.9 -99.99 -9.99
2019/11/17 11:36 CST    1.12   1.43    2  208    3  62.2  61.7 1017.8 -9.9 -9.999 -99.9 -99.99 -9.99
2019/11/17 11:42 CST    1.10   1.41    1  347    2  63.1  61.7 1017.8 -9.9 -9.999 -99.9 -99.99 -9.99
2019/11/17 11:48 CST    1.08   1.38    1  354    3  63.1  61.7 1017.8 -9.9 -9.999 -99.9 -99.99 -9.99
2019/11/17 11:54 CST    1.06   1.35    2  121    3  63.1  61.7 1017.5 -9.9 -9.999 -99.9 -99.99 -9.99
2019/11/17 12:00 CST    1.04   1.33    1  213    2  64.2  61.7 1017.4 -9.9 -9.999 -99.9 -99.99 -9.99
2019/11/17 12:06 CST    1.02   1.28    1  223    2  64.6  61.7 1017.3 -9.9 -9.999 -99.9 -99.99 -9.99
2019/11/17 12:12 CST    1.00   1.28    0  221    2  65.3  61.7 1017.3 -9.9 -9.999 -99.9 -99.99 -9.99
2019/11/17 12:18 CST    0.97   1.23    2  294    4  65.5  61.7 1017.2 -9.9 -9.999 -99.9 -99.99 -9.99
2019/11/17 12:24 CST    0.95   1.17    2  287    4  66.0  61.7 1017.0 -9.9 -9.999 -99.9 -99.99 -9.99
2019/11/17 12:30 CST    0.93   1.17    2  320    4  64.6  61.9 1016.9 -9.9 -9.999 -99.9 -99.99 -9.99
2019/11/17 12:36 CST    0.90   1.15    2  307    3  65.8  61.9 1016.8 -9.9 -9.999 -99.9 -99.99 -9.99
2019/11/17 12:42 CST    0.88   1.13    1  287    3  66.2  61.9 1016.6 -9.9 -9.999 -99.9 -99.99 -9.99
2019/11/17 12:48 CST    0.85   1.10    0    2    4  65.8  61.9 1016.5 -9.9 -9.999 -99.9 -99.99 -9.99
2019/11/17 12:54 CST    0.83   1.06    0  265    1  67.8  61.9 1016.4 -9.9 -9.999 -99.9 -99.99 -9.99
2019/11/17 13:00 CST    0.80   1.04    3  321    4  65.3  62.1 1016.3 -9.9 -9.999 -99.9 -99.99 -9.99
2019/11/17 13:06 CST    0.77   1.03    3  315    4  65.7  62.1 1016.4 -9.9 -9.999 -99.9 -99.99 -9.99
2019/11/17 13:12 CST    0.75   1.01    3  333    4  65.1  62.1 1016.3 -9.9 -9.999 -99.9 -99.99 -9.99
2019/11/17 13:18 CST    0.72   0.99    3  350    5  65.5  62.1 1016.2 -9.9 -9.999 -99.9 -99.99 -9.99
2019/11/17 13:24 CST    0.69   0.96    2   12    4  66.0  62.2 1016.2 -9.9 -9.999 -99.9 -99.99 -9.99
2019/11/17 13:30 CST    0.67   0.94    1  317    3  68.0  62.2 1016.1 -9.9 -9.999 -99.9 -99.99 -9.99
2019/11/17 13:36 CST    0.64   0.90    3  294    5  66.7  62.4 1015.9 -9.9 -9.999 -99.9 -99.99 -9.99
2019/11/17 13:42 CST    0.61   0.89    1  303    2  67.5  62.4 1015.9 -9.9 -9.999 -99.9 -99.99 -9.99
2019/11/17 13:48 CST    0.58   0.87    3  276    6  66.9  62.4 1015.8 -9.9 -9.999 -99.9 -99.99 -9.99
2019/11/17 13:54 CST    0.56   0.85    1  234    4  66.9  62.6 1015.5 -9.9 -9.999 -99.9 -99.99 -9.99
2019/11/17 14:00 CST    0.53   0.85    2  247    4  67.5  62.6 1015.4 -9.9 -9.999 -99.9 -99.99 -9.99
2019/11/17 14:06 CST    0.50   0.83    1  234    3  67.6  62.6 1015.5 -9.9 -9.999 -99.9 -99.99 -9.99
2019/11/17 14:12 CST    0.48   0.81    1  293    2  68.5  62.8 1015.3 -9.9 -9.999 -99.9 -99.99 -9.99
2019/11/17 14:18 CST    0.45   0.78    2  237    4  67.1  62.8 1015.1 -9.9 -9.999 -99.9 -99.99 -9.99
2019/11/17 14:24 CST    0.42   0.76    2  241    3  68.0  62.8 1015.1 -9.9 -9.999 -99.9 -99.99 -9.99
2019/11/17 14:30 CST    0.40   0.74    0  167    2  68.7  63.0 1014.9 -9.9 -9.999 -99.9 -99.99 -9.99
2019/11/17 14:36 CST    0.37   0.72    2  299    2  68.2  63.0 1015.0 -9.9 -9.999 -99.9 -99.99 -9.99
2019/11/17 14:42 CST    0.35   0.72    2  257    5  67.3  63.0 1015.1 -9.9 -9.999 -99.9 -99.99 -9.99
2019/11/17 14:48 CST    0.32   0.68    3  298    4  67.1  63.0 1015.2 -9.9 -9.999 -99.9 -99.99 -9.99
2019/11/17 14:54 CST    0.30   0.65    3  278    5  67.1  63.1 1015.3 -9.9 -9.999 -99.9 -99.99 -9.99
2019/11/17 15:00 CST    0.28   0.65    4  315    5  67.1  63.1 1015.2 -9.9 -9.999 -99.9 -99.99 -9.99
2019/11/17 15:06 CST    0.25   0.64    2  265    7  67.1  63.1 1015.3 -9.9 -9.999 -99.9 -99.99 -9.99
2019/11/17 15:12 CST    0.23   0.62    4  255    7  67.1  63.3 1015.2 -9.9 -9.999 -99.9 -99.99 -9.99
2019/11/17 15:18 CST    0.21   0.61    4  255    7  66.9  63.3 1015.2 -9.9 -9.999 -99.9 -99.99 -9.99
2019/11/17 15:24 CST    0.19   0.59    3  255    5  67.1  63.3 1015.1 -9.9 -9.999 -99.9 -99.99 -9.99
2019/11/17 15:30 CST    0.16   0.57    3  267    5  67.1  63.3 1015.1 -9.9 -9.999 -99.9 -99.99 -9.99
2019/11/17 15:36 CST    0.14   0.55    3  267    6  67.1  63.3 1015.1 -9.9 -9.999 -99.9 -99.99 -9.99
2019/11/17 15:42 CST    0.12   0.55    3  257    4  66.9  63.3 1015.2 -9.9 -9.999 -99.9 -99.99 -9.99
2019/11/17 15:48 CST    0.10   0.53    1  257    4  66.7  63.3 1015.1 -9.9 -9.999 -99.9 -99.99 -9.99
2019/11/17 15:54 CST    0.08   0.52    2  266    4  66.6  63.3 1015.0 -9.9 -9.999 -99.9 -99.99 -9.99
2019/11/17 16:00 CST    0.07   0.48    3  273    4  66.7  63.5 1015.0 -9.9 -9.999 -99.9 -99.99 -9.99
2019/11/17 16:06 CST    0.05   0.46    2  271    4  66.7  63.5 1015.0 -9.9 -9.999 -99.9 -99.99 -9.99
2019/11/17 16:12 CST    0.03   0.45    2  254    4  66.6  63.5 1015.0 -9.9 -9.999 -99.9 -99.99 -9.99
2019/11/17 16:18 CST    0.01   0.43    2  282    4  66.6  63.5 1015.0 -9.9 -9.999 -99.9 -99.99 -9.99
2019/11/17 16:24 CST   -0.00   0.40    3  307    4  66.6  63.5 1014.9 -9.9 -9.999 -99.9 -99.99 -9.99
2019/11/17 16:30 CST   -0.02   0.41    3  298    4  66.6  63.5 1014.9 -9.9 -9.999 -99.9 -99.99 -9.99
2019/11/17 16:36 CST   -0.03   0.39    3  298    4  66.6  63.5 1014.9 -9.9 -9.999 -99.9 -99.99 -9.99
2019/11/17 16:42 CST   -0.05   0.38    2  297    3  66.6  63.5 1014.9 -9.9 -9.999 -99.9 -99.99 -9.99
2019/11/17 16:48 CST   -0.06   0.39    2  286    3  66.4  63.5 1015.0 -9.9 -9.999 -99.9 -99.99 -9.99
2019/11/17 16:54 CST   -0.07   0.36    2  281    4  66.4  63.5 1015.1 -9.9 -9.999 -99.9 -99.99 -9.99
2019/11/17 17:00 CST   -0.08   0.34    1  279    3  66.4  63.5 1015.0 -9.9 -9.999 -99.9 -99.99 -9.99
2019/11/17 17:06 CST   -0.09   0.35    1  275    2  66.2  63.7 1015.1 -9.9 -9.999 -99.9 -99.99 -9.99
2019/11/17 17:12 CST   -0.10   0.32    1  277    3  66.0  63.7 1015.1 -9.9 -9.999 -99.9 -99.99 -9.99
2019/11/17 17:18 CST   -0.11   0.32    1  265    2  65.8  63.7 1015.1 -9.9 -9.999 -99.9 -99.99 -9.99
2019/11/17 17:24 CST   -0.11   0.31    0  272    2  65.7  63.7 1015.2 -9.9 -9.999 -99.9 -99.99 -9.99
2019/11/17 17:30 CST   -0.12   0.28    1  264    2  65.5  63.7 1015.3 -9.9 -9.999 -99.9 -99.99 -9.99
2019/11/17 17:36 CST   -0.12   0.29    1  263    1  65.5  63.7 1015.3 -9.9 -9.999 -99.9 -99.99 -9.99
2019/11/17 17:42 CST   -0.13   0.30    1  271    2  65.3  63.7 1015.3 -9.9 -9.999 -99.9 -99.99 -9.99
2019/11/17 17:48 CST   -0.13   0.28    1  263    2  65.3  63.7 1015.3 -9.9 -9.999 -99.9 -99.99 -9.99
2019/11/17 17:54 CST   -0.13   0.28    2  267    3  65.1  63.7 1015.3 -9.9 -9.999 -99.9 -99.99 -9.99
2019/11/17 18:00 CST   -0.13   0.28    1  273    3  64.9  63.7 1015.3 -9.9 -9.999 -99.9 -99.99 -9.99
2019/11/17 18:06 CST   -0.13   0.28    2  270    2  64.9  63.7 1015.3 -9.9 -9.999 -99.9 -99.99 -9.99
2019/11/17 18:12 CST   -0.13   0.29    2  275    2  64.9  63.7 1015.4 -9.9 -9.999 -99.9 -99.99 -9.99
2019/11/17 18:18 CST   -0.13   0.28    1  204    2  64.6  63.7 1015.4 -9.9 -9.999 -99.9 -99.99 -9.99
2019/11/17 18:24 CST   -0.13   0.32    3  185    5  63.3  63.7 1015.5 -9.9 -9.999 -99.9 -99.99 -9.99
2019/11/17 18:30 CST   -0.12   0.32    4  175    5  62.8  63.7 1015.6 -9.9 -9.999 -99.9 -99.99 -9.99
2019/11/17 18:36 CST   -0.12   0.29    3  213    5  62.6  63.7 1015.7 -9.9 -9.999 -99.9 -99.99 -9.99
2019/11/17 18:42 CST   -0.11   0.30    4  195    6  62.6  63.7 1015.8 -9.9 -9.999 -99.9 -99.99 -9.99
2019/11/17 18:48 CST   -0.10   0.31    3  200    7  62.2  63.7 1015.9 -9.9 -9.999 -99.9 -99.99 -9.99
2019/11/17 18:54 CST   -0.09   0.34    2  216    6  62.2  63.7 1016.0 -9.9 -9.999 -99.9 -99.99 -9.99
2019/11/17 19:00 CST   -0.09   0.32    2  208    3  62.1  63.9 1016.1 -9.9 -9.999 -99.9 -99.99 -9.99
2019/11/17 19:06 CST   -0.07   0.35    3  194    5  61.9  63.9 1016.0 -9.9 -9.999 -99.9 -99.99 -9.99
2019/11/17 19:12 CST   -0.06   0.34    4  209    6  62.2  63.9 1016.1 -9.9 -9.999 -99.9 -99.99 -9.99
2019/11/17 19:18 CST   -0.05   0.38    4  206    6  62.1  63.9 1016.0 -9.9 -9.999 -99.9 -99.99 -9.99
2019/11/17 19:24 CST   -0.04   0.39    4  211    6  62.1  63.9 1015.9 -9.9 -9.999 -99.9 -99.99 -9.99
2019/11/17 19:30 CST   -0.02   0.39    4  211    6  62.1  63.9 1015.9 -9.9 -9.999 -99.9 -99.99 -9.99
2019/11/17 19:36 CST   -0.00   0.44    4  207    6  61.9  63.9 1015.9 -9.9 -9.999 -99.9 -99.99 -9.99
2019/11/17 19:42 CST    0.02   0.47    4  205    6  61.7  63.9 1015.9 -9.9 -9.999 -99.9 -99.99 -9.99
2019/11/17 19:48 CST    0.03   0.45    4  206    5  61.7  63.9 1015.9 -9.9 -9.999 -99.9 -99.99 -9.99
2019/11/17 19:54 CST    0.06   0.48    2  205    4  61.7  63.9 1016.0 -9.9 -9.999 -99.9 -99.99 -9.99
2019/11/17 20:00 CST    0.08   0.50    3  210    5  61.7  63.9 1015.9 -9.9 -9.999 -99.9 -99.99 -9.99
2019/11/17 20:06 CST    0.10   0.50    2  206    5  61.5  63.9 1016.1 -9.9 -9.999 -99.9 -99.99 -9.99
2019/11/17 20:12 CST    0.13   0.54    3  206    6  61.3  63.9 1016.1 -9.9 -9.999 -99.9 -99.99 -9.99
2019/11/17 20:18 CST    0.15   0.57    4  204    6  61.2  63.9 1016.0 -9.9 -9.999 -99.9 -99.99 -9.99
2019/11/17 20:24 CST    0.18   0.59    4  208    6  60.8  63.9 1016.0 -9.9 -9.999 -99.9 -99.99 -9.99
2019/11/17 20:30 CST    0.21   0.62    3  203    5  60.6  63.9 1016.1 -9.9 -9.999 -99.9 -99.99 -9.99
2019/11/17 20:36 CST    0.24   0.64    3  199    5  60.4  63.9 1016.1 -9.9 -9.999 -99.9 -99.99 -9.99
2019/11/17 20:42 CST    0.27   0.68    4  205    5  60.3  63.9 1016.1 -9.9 -9.999 -99.9 -99.99 -9.99
2019/11/17 20:48 CST    0.30   0.72    2  200    4  60.1  63.7 1016.1 -9.9 -9.999 -99.9 -99.99 -9.99
2019/11/17 20:54 CST    0.33   0.75    3  212    5  59.9  63.7 1016.0 -9.9 -9.999 -99.9 -99.99 -9.99
2019/11/17 21:00 CST    0.37   0.79    3  205    5  59.7  63.7 1016.0 -9.9 -9.999 -99.9 -99.99 -9.99
2019/11/17 21:06 CST    0.40   0.83    3  202    5  59.5  63.7 1016.0 -9.9 -9.999 -99.9 -99.99 -9.99
2019/11/17 21:12 CST    0.44   0.86    3  202    4  59.5  63.7 1016.0 -9.9 -9.999 -99.9 -99.99 -9.99
2019/11/17 21:18 CST    0.48   0.90    1  197    5  59.4  63.7 1016.0 -9.9 -9.999 -99.9 -99.99 -9.99
2019/11/17 21:24 CST    0.51   0.95    1  190    3  59.4  63.5 1016.1 -9.9 -9.999 -99.9 -99.99 -9.99
2019/11/17 21:30 CST    0.55   0.97    3  199    5  59.4  63.5 1016.1 -9.9 -9.999 -99.9 -99.99 -9.99
2019/11/17 21:36 CST    0.59   1.02    4  200    5  59.2  63.5 1016.0 -9.9 -9.999 -99.9 -99.99 -9.99
2019/11/17 21:42 CST    0.63   1.06    4  203    5  59.0  63.5 1016.0 -9.9 -9.999 -99.9 -99.99 -9.99
2019/11/17 21:48 CST    0.66   1.06    4  203    6  58.8  63.5 1016.1 -9.9 -9.999 -99.9 -99.99 -9.99
2019/11/17 21:54 CST    0.70   1.10    3  204    6  58.6  63.5 1016.0 -9.9 -9.999 -99.9 -99.99 -9.99
2019/11/17 22:00 CST    0.74   1.15    2  206    6  58.5  63.5 1016.0 -9.9 -9.999 -99.9 -99.99 -9.99
2019/11/17 22:06 CST    0.78   1.18    2  195    4  58.5  63.3 1016.0 -9.9 -9.999 -99.9 -99.99 -9.99
2019/11/17 22:12 CST    0.82   1.23    1  196    3  58.5  63.3 1016.0 -9.9 -9.999 -99.9 -99.99 -9.99
2019/11/17 22:18 CST    0.86   1.29    1  190    2  58.3  63.3 1016.0 -9.9 -9.999 -99.9 -99.99 -9.99
2019/11/17 22:24 CST    0.89   1.31    1  189    4  58.1  63.3 1016.1 -9.9 -9.999 -99.9 -99.99 -9.99
2019/11/17 22:30 CST    0.93   1.36    1  237    2  58.1  63.3 1016.1 -9.9 -9.999 -99.9 -99.99 -9.99
2019/11/17 22:36 CST    0.97   1.39    1  223    2  58.1  63.3 1016.1 -9.9 -9.999 -99.9 -99.99 -9.99
2019/11/17 22:42 CST    1.01   1.41    1  201    2  57.9  63.3 1015.9 -9.9 -9.999 -99.9 -99.99 -9.99
2019/11/17 22:48 CST    1.04   1.44    0  162    2  57.9  63.1 1015.9 -9.9 -9.999 -99.9 -99.99 -9.99
2019/11/17 22:54 CST    1.08   1.49    2  201    3  57.7  63.1 1015.8 -9.9 -9.999 -99.9 -99.99 -9.99
2019/11/17 23:00 CST    1.12   1.51    1  204    2  57.7  63.1 1015.8 -9.9 -9.999 -99.9 -99.99 -9.99
2019/11/17 23:06 CST    1.15   1.54    1  199    2  57.6  63.1 1015.8 -9.9 -9.999 -99.9 -99.99 -9.99
2019/11/17 23:12 CST    1.19   1.54    1  227    2  57.6  63.1 1015.7 -9.9 -9.999 -99.9 -99.99 -9.99
2019/11/17 23:18 CST    1.22   1.59    1  186    2  57.6  63.1 1015.6 -9.9 -9.999 -99.9 -99.99 -9.99
2019/11/17 23:24 CST    1.26   1.62    0  171    2  57.4  63.1 1015.6 -9.9 -9.999 -99.9 -99.99 -9.99
2019/11/17 23:30 CST    1.29   1.66    0  200    1  57.4  63.1 1015.6 -9.9 -9.999 -99.9 -99.99 -9.99
2019/11/17 23:36 CST    1.33   1.67    1  245    1  57.0  63.0 1015.6 -9.9 -9.999 -99.9 -99.99 -9.99
2019/11/17 23:42 CST    1.36   1.69    1  260    3  56.8  63.0 1015.8 -9.9 -9.999 -99.9 -99.99 -9.99
2019/11/17 23:48 CST    1.39   1.72    2  276    2  56.7  63.0 1015.7 -9.9 -9.999 -99.9 -99.99 -9.99
2019/11/17 23:54 CST    1.42   1.73    1  267    2  56.3  63.0 1015.7 -9.9 -9.999 -99.9 -99.99 -9.99
2019/11/18 00:00 CST    1.45   1.77    1  263    2  56.1  63.0 1015.7 -9.9 -9.999 -99.9 -99.99 -9.99
2019/11/18 00:06 CST    1.48   1.76    2  270    3  55.9  63.0 1015.7 -9.9 -9.999 -99.9 -99.99 -9.99
2019/11/18 00:12 CST    1.51   1.80    2  283    3  55.8  63.0 1015.6 -9.9 -9.999 -99.9 -99.99 -9.99
2019/11/18 00:18 CST    1.54   1.82    2  271    3  55.8  63.0 1015.5 -9.9 -9.999 -99.9 -99.99 -9.99
2019/11/18 00:24 CST    1.57   1.84    2  264    3  55.6  63.0 1015.5 -9.9 -9.999 -99.9 -99.99 -9.99
2019/11/18 00:30 CST    1.59   1.89    1  265    2  55.6  63.0 1015.5 -9.9 -9.999 -99.9 -99.99 -9.99
2019/11/18 00:36 CST    1.62   1.88    2  259    3  55.8  63.0 1015.5 -9.9 -9.999 -99.9 -99.99 -9.99
2019/11/18 00:42 CST    1.64   1.89    2  257    3  55.8  63.0 1015.5 -9.9 -9.999 -99.9 -99.99 -9.99
2019/11/18 00:48 CST    1.67   1.92    2  266    3  55.8  63.0 1015.5 -9.9 -9.999 -99.9 -99.99 -9.99
2019/11/18 00:54 CST    1.69   1.93    2  268    3  55.8  63.0 1015.5 -9.9 -9.999 -99.9 -99.99 -9.99
2019/11/18 01:00 CST    1.71   1.92    2  272    4  55.6  63.0 1015.5 -9.9 -9.999 -99.9 -99.99 -9.99
2019/11/18 01:06 CST    1.73   1.94    2  271    3  55.2  63.0 1015.5 -9.9 -9.999 -99.9 -99.99 -9.99
2019/11/18 01:12 CST    1.75   1.94    2  271    3  55.2  63.0 1015.4 -9.9 -9.999 -99.9 -99.99 -9.99
2019/11/18 01:18 CST    1.76   1.95    2  266    3  55.0  63.0 1015.4 -9.9 -9.999 -99.9 -99.99 -9.99
2019/11/18 01:24 CST    1.78   1.96    2  270    3  55.0  63.0 1015.3 -9.9 -9.999 -99.9 -99.99 -9.99
2019/11/18 01:30 CST    1.79   1.97    1  275    3  55.0  63.0 1015.3 -9.9 -9.999 -99.9 -99.99 -9.99
2019/11/18 01:36 CST    1.81   1.99    1  268    3  55.0  63.0 1015.3 -9.9 -9.999 -99.9 -99.99 -9.99
2019/11/18 01:42 CST    1.82   2.00    2  272    3  55.0  63.0 1015.3 -9.9 -9.999 -99.9 -99.99 -9.99
2019/11/18 01:48 CST    1.83   2.00    2  272    3  54.9  63.0 1015.2 -9.9 -9.999 -99.9 -99.99 -9.99
2019/11/18 01:54 CST    1.84   2.00    2  279    3  54.9  62.8 1015.2 -9.9 -9.999 -99.9 -99.99 -9.99
2019/11/18 02:00 CST    1.85   2.02    2  283    2  54.7  62.8 1015.1 -9.9 -9.999 -99.9 -99.99 -9.99
2019/11/18 02:06 CST    1.86   2.02    1  269    2  54.7  62.8 1015.1 -9.9 -9.999 -99.9 -99.99 -9.99
2019/11/18 02:12 CST    1.87   2.02    2  272    2  54.5  62.8 1015.1 -9.9 -9.999 -99.9 -99.99 -9.99
2019/11/18 02:18 CST    1.87   2.02    2  266    3  54.5  62.8 1015.1 -9.9 -9.999 -99.9 -99.99 -9.99
2019/11/18 02:24 CST    1.88   2.02    2  263    3  54.3  62.8 1015.0 -9.9 -9.999 -99.9 -99.99 -9.99
2019/11/18 02:30 CST    1.89   2.01    2  266    3  54.3  62.8 1015.0 -9.9 -9.999 -99.9 -99.99 -9.99
2019/11/18 02:36 CST    1.89   2.02    2  267    3  54.3  62.8 1015.0 -9.9 -9.999 -99.9 -99.99 -9.99
2019/11/18 02:42 CST    1.89   2.01    2  284    3  54.1  62.8 1015.1 -9.9 -9.999 -99.9 -99.99 -9.99
2019/11/18 02:48 CST    1.90   2.01    2  269    4  54.3  62.8 1015.1 -9.9 -9.999 -99.9 -99.99 -9.99
2019/11/18 02:54 CST    1.90   2.01    2  269    3  54.5  62.8 1015.0 -9.9 -9.999 -99.9 -99.99 -9.99
2019/11/18 03:00 CST    1.90   2.03    2  259    3  54.5  62.8 1014.9 -9.9 -9.999 -99.9 -99.99 -9.99
2019/11/18 03:06 CST    1.90   2.01    2  276    4  54.3  62.8 1015.0 -9.9 -9.999 -99.9 -99.99 -9.99
2019/11/18 03:12 CST    1.91   2.01    1  283    2  54.0  62.8 1014.9 -9.9 -9.999 -99.9 -99.99 -9.99
2019/11/18 03:18 CST    1.91   2.01    1  270    2  54.1  62.8 1014.8 -9.9 -9.999 -99.9 -99.99 -9.99
2019/11/18 03:24 CST    1.91   2.01    1  274    3  54.0  62.8 1014.9 -9.9 -9.999 -99.9 -99.99 -9.99
2019/11/18 03:30 CST    1.91   2.01    1  278    2  54.0  62.8 1014.9 -9.9 -9.999 -99.9 -99.99 -9.99
2019/11/18 03:36 CST    1.91   2.01    1  287    2  54.0  62.8 1014.8 -9.9 -9.999 -99.9 -99.99 -9.99
2019/11/18 03:42 CST    1.90   2.01    2  270    3  54.0  62.8 1014.8 -9.9 -9.999 -99.9 -99.99 -9.99
2019/11/18 03:48 CST    1.90   2.01    2  295    2  53.6  62.8 1014.7 -9.9 -9.999 -99.9 -99.99 -9.99
2019/11/18 03:54 CST    1.90   2.00    1  273    2  54.0  62.8 1014.6 -9.9 -9.999 -99.9 -99.99 -9.99
2019/11/18 04:00 CST    1.90   2.01    1  283    2  53.8  62.8 1014.7 -9.9 -9.999 -99.9 -99.99 -9.99
2019/11/18 04:06 CST    1.89   2.00    1  267    3  54.0  62.8 1014.6 -9.9 -9.999 -99.9 -99.99 -9.99
2019/11/18 04:12 CST    1.89   1.99    2  270    3  53.8  62.8 1014.7 -9.9 -9.999 -99.9 -99.99 -9.99
2019/11/18 04:18 CST    1.89   2.01    2  270    3  54.0  62.8 1014.6 -9.9 -9.999 -99.9 -99.99 -9.99
2019/11/18 04:24 CST    1.88   1.99    2  293    3  53.8  62.8 1014.6 -9.9 -9.999 -99.9 -99.99 -9.99
2019/11/18 04:30 CST    1.88   1.99    2  302    3  53.6  62.8 1014.6 -9.9 -9.999 -99.9 -99.99 -9.99
2019/11/18 04:36 CST    1.87   1.99    2  288    3  53.4  62.8 1014.6 -9.9 -9.999 -99.9 -99.99 -9.99
2019/11/18 04:42 CST    1.87   2.01    2  297    2  53.6  62.8 1014.6 -9.9 -9.999 -99.9 -99.99 -9.99
2019/11/18 04:48 CST    1.86   1.99    2  305    2  53.2  62.8 1014.6 -9.9 -9.999 -99.9 -99.99 -9.99
2019/11/18 04:54 CST    1.85   2.00    2  304    2  53.2  62.8 1014.6 -9.9 -9.999 -99.9 -99.99 -9.99
2019/11/18 05:00 CST    1.85   2.00    2  290    3  53.4  62.8 1014.6 -9.9 -9.999 -99.9 -99.99 -9.99
2019/11/18 05:06 CST    1.84   1.98    1  299    2  53.4  62.8 1014.6 -9.9 -9.999 -99.9 -99.99 -9.99
2019/11/18 05:12 CST    1.84   1.99    1  299    2  53.6  62.8 1014.6 -9.9 -9.999 -99.9 -99.99 -9.99
2019/11/18 05:18 CST    1.83   1.97    2  305    2  53.1  62.8 1014.6 -9.9 -9.999 -99.9 -99.99 -9.99
2019/11/18 05:24 CST    1.82   1.96    1  266    2  53.8  62.8 1014.6 -9.9 -9.999 -99.9 -99.99 -9.99
2019/11/18 05:30 CST    1.82   1.96    1  275    2  53.6  62.8 1014.7 -9.9 -9.999 -99.9 -99.99 -9.99
2019/11/18 05:36 CST    1.81   1.95    2  267    2  54.0  62.8 1014.7 -9.9 -9.999 -99.9 -99.99 -9.99
2019/11/18 05:42 CST    1.80   1.94    1  269    3  54.0  62.8 1014.7 -9.9 -9.999 -99.9 -99.99 -9.99
2019/11/18 05:48 CST    1.79   1.94    2  286    3  53.6  62.8 1014.8 -9.9 -9.999 -99.9 -99.99 -9.99
2019/11/18 05:54 CST    1.79   1.93    2  297    3  53.2  62.8 1014.8 -9.9 -9.999 -99.9 -99.99 -9.99
2019/11/18 06:00 CST    1.78   1.91    2  282    2  53.4  62.8 1014.8 -9.9 -9.999 -99.9 -99.99 -9.99
2019/11/18 06:06 CST    1.77   1.91    1  272    3  54.0  62.8 1014.8 -9.9 -9.999 -99.9 -99.99 -9.99
2019/11/18 06:12 CST    1.76   1.89    2  279    2  54.0  62.8 1014.8 -9.9 -9.999 -99.9 -99.99 -9.99
2019/11/18 06:18 CST    1.76   1.88    2  280    3  54.0  62.8 1014.8 -9.9 -9.999 -99.9 -99.99 -9.99
2019/11/18 06:24 CST    1.75   1.87    2  282    2  54.0  62.8 1014.9 -9.9 -9.999 -99.9 -99.99 -9.99
2019/11/18 06:30 CST    1.74   1.85    1  269    2  54.1  62.8 1014.9 -9.9 -9.999 -99.9 -99.99 -9.99
2019/11/18 06:36 CST    1.73   1.84    1  268    2  54.1  62.8 1014.9 -9.9 -9.999 -99.9 -99.99 -9.99
2019/11/18 06:42 CST    1.72   1.84    1  273    2  54.1  62.8 1014.9 -9.9 -9.999 -99.9 -99.99 -9.99
2019/11/18 06:48 CST    1.71   1.83    2  286    3  54.0  62.8 1015.0 -9.9 -9.999 -99.9 -99.99 -9.99
2019/11/18 06:54 CST    1.70   1.81    2  289    3  53.8  62.8 1015.0 -9.9 -9.999 -99.9 -99.99 -9.99
2019/11/18 07:00 CST    1.69   1.81    1  284    3  54.0  62.8 1015.1 -9.9 -9.999 -99.9 -99.99 -9.99
2019/11/18 07:06 CST    1.68   1.80    2  295    2  53.6  62.8 1015.1 -9.9 -9.999 -99.9 -99.99 -9.99
2019/11/18 07:12 CST    1.67   1.78    1  275    2  54.1  62.8 1015.1 -9.9 -9.999 -99.9 -99.99 -9.99
2019/11/18 07:18 CST    1.66   1.77    1  286    2  54.5  62.8 1015.1 -9.9 -9.999 -99.9 -99.99 -9.99
2019/11/18 07:24 CST    1.65   1.77    2  296    2  54.5  62.8 1015.2 -9.9 -9.999 -99.9 -99.99 -9.99
2019/11/18 07:30 CST    1.64   1.76    2  285    3  55.0  62.8 1015.3 -9.9 -9.999 -99.9 -99.99 -9.99
2019/11/18 07:36 CST    1.63   1.76    3  291    4  55.4  62.8 1015.3 -9.9 -9.999 -99.9 -99.99 -9.99
2019/11/18 07:42 CST    1.62   1.74    1  279    4  55.9  62.8 1015.3 -9.9 -9.999 -99.9 -99.99 -9.99
2019/11/18 07:48 CST    1.61   1.73    2  289    3  55.8  62.8 1015.4 -9.9 -9.999 -99.9 -99.99 -9.99
2019/11/18 07:54 CST    1.60   1.72    2  290    3  56.1  62.8 1015.3 -9.9 -9.999 -99.9 -99.99 -9.99
2019/11/18 08:00 CST    1.59   1.71    2  302    4  56.3  62.8 1015.4 -9.9 -9.999 -99.9 -99.99 -9.99
2019/11/18 08:06 CST    1.58   1.71    3  302    4  56.3  62.8 1015.4 -9.9 -9.999 -99.9 -99.99 -9.99
2019/11/18 08:12 CST    1.57   1.67    3  311    4  56.7  62.8 1015.5 -9.9 -9.999 -99.9 -99.99 -9.99
2019/11/18 08:18 CST    1.56   1.65    3  308    4  56.8  62.8 1015.5 -9.9 -9.999 -99.9 -99.99 -9.99
2019/11/18 08:24 CST    1.55   1.63    3  308    5  57.0  62.6 1015.6 -9.9 -9.999 -99.9 -99.99 -9.99
2019/11/18 08:30 CST    1.54   1.60    3  306    5  57.4  62.6 1015.7 -9.9 -9.999 -99.9 -99.99 -9.99
2019/11/18 08:36 CST    1.53   1.60    4  321    5  57.7  62.6 1015.8 -9.9 -9.999 -99.9 -99.99 -9.99
2019/11/18 08:42 CST    1.52   1.59    3  319    5  58.3  62.6 1015.9 -9.9 -9.999 -99.9 -99.99 -9.99
2019/11/18 08:48 CST    1.51   1.57    3  338    4  58.8  62.6 1016.0 -9.9 -9.999 -99.9 -99.99 -9.99
2019/11/18 08:54 CST    1.50   1.56    4  319    5  58.8  62.6 1016.0 -9.9 -9.999 -99.9 -99.99 -9.99
2019/11/18 09:00 CST    1.50   1.54    5  324    6  59.0  62.6 1016.1 -9.9 -9.999 -99.9 -99.99 -9.99
2019/11/18 09:06 CST    1.49   1.54    4  328    5  59.4  62.6 1016.2 -9.9 -9.999 -99.9 -99.99 -9.99
2019/11/18 09:12 CST    1.48   1.51    4  322    5  59.5  62.6 1016.2 -9.9 -9.999 -99.9 -99.99 -9.99
2019/11/18 09:18 CST    1.47   1.51    4  320    5  60.1  62.6 1016.2 -9.9 -9.999 -99.9 -99.99 -9.99
2019/11/18 09:24 CST    1.46   1.47    4  321    5  60.4  62.6 1016.2 -9.9 -9.999 -99.9 -99.99 -9.99
2019/11/18 09:30 CST    1.46   1.45    4  323    5  60.8  62.6 1016.2 -9.9 -9.999 -99.9 -99.99 -9.99
2019/11/18 09:36 CST    1.45   1.42    3  330    5  61.3  62.6 1016.2 -9.9 -9.999 -99.9 -99.99 -9.99
2019/11/18 09:42 CST    1.44   1.41    4  321    5  61.3  62.6 1016.2 -9.9 -9.999 -99.9 -99.99 -9.99
2019/11/18 09:48 CST    1.43   1.37    3  321    4  62.1  62.6 1016.2 -9.9 -9.999 -99.9 -99.99 -9.99
2019/11/18 09:54 CST    1.42   1.32    3  314    4  62.2  62.6 1016.2 -9.9 -9.999 -99.9 -99.99 -9.99
2019/11/18 10:00 CST    1.42   1.31    3  329    4  62.8  62.6 1016.3 -9.9 -9.999 -99.9 -99.99 -9.99
2019/11/18 10:06 CST    1.41   1.30    3  335    5  63.0  62.6 1016.2 -9.9 -9.999 -99.9 -99.99 -9.99
2019/11/18 10:12 CST    1.40   1.30    3  305    6  63.7  62.6 1016.1 -9.9 -9.999 -99.9 -99.99 -9.99
2019/11/18 10:18 CST    1.39   1.27    1  330    4  64.2  62.6 1015.9 -9.9 -9.999 -99.9 -99.99 -9.99
2019/11/18 10:24 CST    1.38   1.26    2  318    4  64.8  62.6 1015.9 -9.9 -9.999 -99.9 -99.99 -9.99
2019/11/18 10:30 CST    1.37   1.24    3    1    5  64.8  62.6 1015.8 -9.9 -9.999 -99.9 -99.99 -9.99
2019/11/18 10:36 CST    1.36   1.25    4    0    6  64.8  62.6 1015.8 -9.9 -9.999 -99.9 -99.99 -9.99
2019/11/18 10:42 CST    1.35   1.23    5   38    6  65.3  62.6 1015.7 -9.9 -9.999 -99.9 -99.99 -9.99
2019/11/18 10:48 CST    1.33   1.21    3  353    6  65.8  62.6 1015.7 -9.9 -9.999 -99.9 -99.99 -9.99
2019/11/18 10:54 CST    1.32   1.21    4  351    6  65.5  62.8 1015.7 -9.9 -9.999 -99.9 -99.99 -9.99
2019/11/18 11:00 CST    1.31   1.17    4    5    6  65.7  62.8 1015.6 -9.9 -9.999 -99.9 -99.99 -9.99
2019/11/18 11:06 CST    1.30   1.13    4    8    7  66.4  62.8 1015.4 -9.9 -9.999 -99.9 -99.99 -9.99
2019/11/18 11:12 CST    1.29   1.11    3  357    7  66.0  62.8 1015.3 -9.9 -9.999 -99.9 -99.99 -9.99
2019/11/18 11:18 CST    1.27   1.11    0  288    6  67.5  62.8 1015.1 -9.9 -9.999 -99.9 -99.99 -9.99
2019/11/18 11:24 CST    1.26   1.09    2  290    5  67.6  62.8 1015.1 -9.9 -9.999 -99.9 -99.99 -9.99
2019/11/18 11:30 CST    1.25   1.09    3  288    4  67.8  62.8 1015.0 -9.9 -9.999 -99.9 -99.99 -9.99
2019/11/18 11:36 CST    1.23   1.08    2  288    4  68.7  62.8 1014.8 -9.9 -9.999 -99.9 -99.99 -9.99
2019/11/18 11:42 CST    1.22   1.07    3  278    4  68.9  62.8 1014.7 -9.9 -9.999 -99.9 -99.99 -9.99
2019/11/18 11:48 CST    1.20   1.05    4   13    7  67.3  63.0 1014.6 -9.9 -9.999 -99.9 -99.99 -9.99
2019/11/18 11:54 CST    1.19   1.04    3   28    5  67.5  63.0 1014.5 -9.9 -9.999 -99.9 -99.99 -9.99
2019/11/18 12:00 CST    1.17   1.03    1  305    4  68.2  63.0 1014.4 -9.9 -9.999 -99.9 -99.99 -9.99
2019/11/18 12:06 CST    1.16   1.01    3  316    5  68.4  63.0 1014.3 -9.9 -9.999 -99.9 -99.99 -9.99
2019/11/18 12:12 CST    1.14   0.99    2  332    5  69.1  63.0 1014.2 -9.9 -9.999 -99.9 -99.99 -9.99
2019/11/18 12:18 CST    1.13   0.96    3  302    4  69.3  63.0 1014.1 -9.9 -9.999 -99.9 -99.99 -9.99
2019/11/18 12:24 CST    1.11   0.96    3  278    8  69.8  63.0 1014.0 -9.9 -9.999 -99.9 -99.99 -9.99
2019/11/18 12:30 CST    1.10   0.92    3  298    4  70.2  63.0 1013.9 -9.9 -9.999 -99.9 -99.99 -9.99
2019/11/18 12:36 CST    1.08   0.90    2  241    4  70.7  63.0 1013.7 -9.9 -9.999 -99.9 -99.99 -9.99
2019/11/18 12:42 CST    1.06   0.92    3  269    7  71.1  63.1 1013.6 -9.9 -9.999 -99.9 -99.99 -9.99
2019/11/18 12:48 CST    1.05   0.91    1  268    4  70.9  63.1 1013.5 -9.9 -9.999 -99.9 -99.99 -9.99
2019/11/18 12:54 CST    1.03   0.88    2  297    4  70.7  63.1 1013.4 -9.9 -9.999 -99.9 -99.99 -9.99
2019/11/18 13:00 CST    1.01   0.83    4  265    8  70.7  63.1 1013.3 -9.9 -9.999 -99.9 -99.99 -9.99
2019/11/18 13:06 CST    0.99   0.84 -999 -999 -999 -99.9 -99.9 -999.9 -9.9 -9.999 -99.9 -99.99 -9.99
2019/11/18 13:12 CST    0.97   0.82    4  295    7  70.9  63.1 1013.0 -9.9 -9.999 -99.9 -99.99 -9.99
2019/11/18 13:18 CST    0.95   0.82    2  260    6  71.4  63.3 1012.8 -9.9 -9.999 -99.9 -99.99 -9.99
2019/11/18 13:24 CST    0.94   0.78    5  290    7  70.3  63.3 1012.7 -9.9 -9.999 -99.9 -99.99 -9.99
2019/11/18 13:30 CST    0.91   0.76    3  271    7  71.4  63.3 1012.5 -9.9 -9.999 -99.9 -99.99 -9.99
2019/11/18 13:36 CST    0.89   0.74    5  308    8  70.7  63.3 1012.4 -9.9 -9.999 -99.9 -99.99 -9.99
2019/11/18 13:42 CST    0.87   0.73    6  292    8  70.7  63.3 1012.3 -9.9 -9.999 -99.9 -99.99 -9.99
2019/11/18 13:48 CST    0.85   0.68    4  284    7  71.2  63.5 1012.3 -9.9 -9.999 -99.9 -99.99 -9.99
2019/11/18 13:54 CST    0.83   0.67    5  312    6  71.1  63.5 1012.2 -9.9 -9.999 -99.9 -99.99 -9.99
2019/11/18 14:00 CST    0.81   0.68    4  295    7  71.2  63.5 1012.2 -9.9 -9.999 -99.9 -99.99 -9.99
2019/11/18 14:06 CST    0.79   0.65    6  310    8  71.1  63.5 1012.2 -9.9 -9.999 -99.9 -99.99 -9.99
2019/11/18 14:12 CST    0.76   0.62    4  296    6  71.6  63.5 1012.1 -9.9 -9.999 -99.9 -99.99 -9.99
2019/11/18 14:18 CST    0.74   0.60    3  277    8  72.1  63.7 1012.0 -9.9 -9.999 -99.9 -99.99 -9.99
2019/11/18 14:24 CST    0.72   0.60    5  282    8  71.6  63.7 1012.0 -9.9 -9.999 -99.9 -99.99 -9.99
2019/11/18 14:30 CST    0.69   0.55    4  282    6  71.4  63.7 1011.9 -9.9 -9.999 -99.9 -99.99 -9.99
2019/11/18 14:36 CST    0.67   0.53    4  328    6  71.2  63.7 1011.9 -9.9 -9.999 -99.9 -99.99 -9.99
2019/11/18 14:42 CST    0.65   0.50    5  313    7  70.9  63.7 1011.9 -9.9 -9.999 -99.9 -99.99 -9.99
2019/11/18 14:48 CST    0.62   0.46    1  224    6  70.0  63.7 1011.8 -9.9 -9.999 -99.9 -99.99 -9.99
2019/11/18 14:54 CST    0.60   0.44    2  309    5  70.9  63.9 1011.8 -9.9 -9.999 -99.9 -99.99 -9.99
2019/11/18 15:00 CST    0.58   0.41    4  308    5  71.1  63.9 1011.8 -9.9 -9.999 -99.9 -99.99 -9.99
2019/11/18 15:06 CST    0.55   0.41    4  315    6  71.2  63.9 1011.7 -9.9 -9.999 -99.9 -99.99 -9.99
2019/11/18 15:12 CST    0.53   0.38 -999 -999 -999 -99.9 -99.9 -999.9 -9.9 -9.999 -99.9 -99.99 -9.99
2019/11/18 15:18 CST    0.51   0.36    4  295    6  71.4  63.9 1011.8 -9.9 -9.999 -99.9 -99.99 -9.99
2019/11/18 15:24 CST    0.48   0.36    5  287    8  70.9  63.9 1011.9 -9.9 -9.999 -99.9 -99.99 -9.99
2019/11/18 15:30 CST    0.46   0.32    4  313    6  71.1  63.9 1011.9 -9.9 -9.999 -99.9 -99.99 -9.99
2019/11/18 15:36 CST    0.44 -99.99 -999 -999 -999 -99.9 -99.9 -999.9 -9.9 -9.999 -99.9 -99.99 -9.99
2019/11/18 15:42 CST    0.42 -99.99 -999 -999 -999 -99.9 -99.9 -999.9 -9.9 -9.999 -99.9 -99.99 -9.99
2019/11/18 15:48 CST    0.40 -99.99 -999 -999 -999 -99.9 -99.9 -999.9 -9.9 -9.999 -99.9 -99.99 -9.99
2019/11/18 15:54 CST    0.37   0.30    3  344    4  71.4  64.0 1011.9 -9.9 -9.999 -99.9 -99.99 -9.99
2019/11/18 16:00 CST    0.35   0.28    3  330    4  71.4  64.0 1011.9 -9.9 -9.999 -99.9 -99.99 -9.99
2019/11/18 16:06 CST    0.33   0.25    4  284    5  71.2  64.0 1011.9 -9.9 -9.999 -99.9 -99.99 -9.99
2019/11/18 16:12 CST    0.31   0.21    4  302    5  71.4  64.0 1011.8 -9.9 -9.999 -99.9 -99.99 -9.99
2019/11/18 16:18 CST    0.29   0.21    2  293    5  71.2  64.0 1011.8 -9.9 -9.999 -99.9 -99.99 -9.99
2019/11/18 16:24 CST    0.27   0.17    4  305    5  71.4  64.0 1011.8 -9.9 -9.999 -99.9 -99.99 -9.99
2019/11/18 16:30 CST    0.25   0.14    2  301    4  71.1  64.0 1011.8 -9.9 -9.999 -99.9 -99.99 -9.99
2019/11/18 16:36 CST    0.23   0.13    2  286    3  71.2  64.0 1011.8 -9.9 -9.999 -99.9 -99.99 -9.99
2019/11/18 16:42 CST    0.21   0.12    2  280    6  70.9  64.0 1011.8 -9.9 -9.999 -99.9 -99.99 -9.99
2019/11/18 16:48 CST    0.19   0.09    3  282    5  70.7  64.0 1011.8 -9.9 -9.999 -99.9 -99.99 -9.99
2019/11/18 16:54 CST    0.17   0.08    2  284    5  70.9  64.2 1011.8 -9.9 -9.999 -99.9 -99.99 -9.99
2019/11/18 17:00 CST    0.15   0.06    2  276    4  70.9  64.2 1011.8 -9.9 -9.999 -99.9 -99.99 -9.99
2019/11/18 17:06 CST    0.14   0.05    2  284    3  70.5  64.2 1011.8 -9.9 -9.999 -99.9 -99.99 -9.99
2019/11/18 17:12 CST    0.12   0.04    2  281    2  70.0  64.2 1011.8 -9.9 -9.999 -99.9 -99.99 -9.99
2019/11/18 17:18 CST    0.10   0.03    2  303    3  69.4  64.2 1011.9 -9.9 -9.999 -99.9 -99.99 -9.99
2019/11/18 17:24 CST    0.08   0.03    2  288    2  69.1  64.2 1011.9 -9.9 -9.999 -99.9 -99.99 -9.99
2019/11/18 17:30 CST    0.07   0.01    1  295    2  68.5  64.2 1011.9 -9.9 -9.999 -99.9 -99.99 -9.99
2019/11/18 17:36 CST    0.05  -0.01    1  287    2  68.2  64.4 1012.0 -9.9 -9.999 -99.9 -99.99 -9.99
2019/11/18 17:42 CST    0.04  -0.03    0  282    1  68.0  64.4 1011.9 -9.9 -9.999 -99.9 -99.99 -9.99
2019/11/18 17:48 CST    0.03  -0.03    1  283    1  68.0  64.4 1012.0 -9.9 -9.999 -99.9 -99.99 -9.99
2019/11/18 17:54 CST    0.01  -0.06    1  285    2  67.1  64.4 1012.0 -9.9 -9.999 -99.9 -99.99 -9.99
2019/11/18 18:00 CST    0.00  -0.05    0  164    2  65.3  64.4 1012.1 -9.9 -9.999 -99.9 -99.99 -9.99
2019/11/18 18:06 CST   -0.01  -0.07    0    9    1  65.3  64.4 1012.1 -9.9 -9.999 -99.9 -99.99 -9.99
2019/11/18 18:12 CST   -0.02  -0.09    0  275    1  64.8  64.4 1012.0 -9.9 -9.999 -99.9 -99.99 -9.99
2019/11/18 18:18 CST   -0.03  -0.08    0  275    0  64.8  64.4 1012.1 -9.9 -9.999 -99.9 -99.99 -9.99
2019/11/18 18:24 CST   -0.04  -0.09    0  267    0  64.0  64.4 1012.1 -9.9 -9.999 -99.9 -99.99 -9.99
2019/11/18 18:30 CST   -0.05  -0.06    0  268    0  63.9  64.4 1012.2 -9.9 -9.999 -99.9 -99.99 -9.99
2019/11/18 18:36 CST   -0.05  -0.06    1  333    1  64.6  64.4 1012.3 -9.9 -9.999 -99.9 -99.99 -9.99
2019/11/18 18:42 CST   -0.06  -0.05    1   40    2  65.5  64.4 1012.4 -9.9 -9.999 -99.9 -99.99 -9.99
2019/11/18 18:48 CST   -0.06  -0.09    1  108    2  63.7  64.4 1012.5 -9.9 -9.999 -99.9 -99.99 -9.99
2019/11/18 18:54 CST   -0.07  -0.09    0  108    1  64.4  64.4 1012.5 -9.9 -9.999 -99.9 -99.99 -9.99
2019/11/18 19:00 CST   -0.07  -0.09    0  108    0  64.4  64.4 1012.7 -9.9 -9.999 -99.9 -99.99 -9.99
2019/11/18 19:06 CST   -0.07  -0.07    1  322    1  63.5  64.4 1012.8 -9.9 -9.999 -99.9 -99.99 -9.99
2019/11/18 19:12 CST   -0.08  -0.06    0  303    1  62.8  64.4 1012.8 -9.9 -9.999 -99.9 -99.99 -9.99
2019/11/18 19:18 CST   -0.08  -0.08    0  293    1  62.8  64.4 1012.9 -9.9 -9.999 -99.9 -99.99 -9.99
2019/11/18 19:24 CST   -0.08  -0.09    0  199    1  62.1  64.4 1013.0 -9.9 -9.999 -99.9 -99.99 -9.99
2019/11/18 19:30 CST   -0.07  -0.07    0  291    1  62.1  64.2 1013.1 -9.9 -9.999 -99.9 -99.99 -9.99
2019/11/18 19:36 CST   -0.07  -0.07    1  288    1  61.7  64.2 1013.2 -9.9 -9.999 -99.9 -99.99 -9.99
2019/11/18 19:42 CST   -0.07  -0.07    1  206    1  61.5  64.2 1013.4 -9.9 -9.999 -99.9 -99.99 -9.99
2019/11/18 19:48 CST   -0.06  -0.05    2  191    3  61.3  64.2 1013.5 -9.9 -9.999 -99.9 -99.99 -9.99
2019/11/18 19:54 CST   -0.06  -0.05    3  192    5  63.3  64.2 1013.5 -9.9 -9.999 -99.9 -99.99 -9.99
2019/11/18 20:00 CST   -0.05  -0.05    4  204    6  63.1  64.2 1013.5 -9.9 -9.999 -99.9 -99.99 -9.99
2019/11/18 20:06 CST   -0.04  -0.03    5  197    6  62.2  64.2 1013.6 -9.9 -9.999 -99.9 -99.99 -9.99
2019/11/18 20:12 CST   -0.03  -0.01    5  198    7  61.7  64.2 1013.5 -9.9 -9.999 -99.9 -99.99 -9.99
2019/11/18 20:18 CST   -0.02   0.01    5  198    7  61.5  64.2 1013.5 -9.9 -9.999 -99.9 -99.99 -9.99
2019/11/18 20:24 CST   -0.01   0.03    3  231    7  61.3  64.2 1013.5 -9.9 -9.999 -99.9 -99.99 -9.99
2019/11/18 20:30 CST    0.00   0.06    4  205    8  61.0  64.2 1013.6 -9.9 -9.999 -99.9 -99.99 -9.99
2019/11/18 20:36 CST    0.02   0.08    3  202    6  60.8  64.2 1013.6 -9.9 -9.999 -99.9 -99.99 -9.99
2019/11/18 20:42 CST    0.03   0.12    4  195    6  60.8  64.2 1013.4 -9.9 -9.999 -99.9 -99.99 -9.99
2019/11/18 20:48 CST    0.05   0.14    3  211    8  60.8  64.2 1013.4 -9.9 -9.999 -99.9 -99.99 -9.99
2019/11/18 20:54 CST    0.07   0.16    5  209    7  60.8  64.2 1013.3 -9.9 -9.999 -99.9 -99.99 -9.99
2019/11/18 21:00 CST    0.09   0.24    6  211    8  60.8  64.2 1013.5 -9.9 -9.999 -99.9 -99.99 -9.99
2019/11/18 21:06 CST    0.11   0.26    5  210    8  60.6  64.2 1013.6 -9.9 -9.999 -99.9 -99.99 -9.99
2019/11/18 21:12 CST    0.13   0.29    5  209    7  60.6  64.2 1013.8 -9.9 -9.999 -99.9 -99.99 -9.99
2019/11/18 21:18 CST    0.16   0.34    3  209    6  60.8  64.2 1013.9 -9.9 -9.999 -99.9 -99.99 -9.99
2019/11/18 21:24 CST    0.18   0.37    2  176    4  60.4  64.2 1014.0 -9.9 -9.999 -99.9 -99.99 -9.99
2019/11/18 21:30 CST    0.21   0.40    1  182    4  60.3  64.0 1014.0 -9.9 -9.999 -99.9 -99.99 -9.99
2019/11/18 21:36 CST    0.24   0.44    1  211    4  60.1  64.0 1014.0 -9.9 -9.999 -99.9 -99.99 -9.99
2019/11/18 21:42 CST    0.26   0.47    2  195    4  60.1  64.0 1014.2 -9.9 -9.999 -99.9 -99.99 -9.99
2019/11/18 21:48 CST    0.29   0.50    3  178    4  60.3  64.0 1014.1 -9.9 -9.999 -99.9 -99.99 -9.99
2019/11/18 21:54 CST    0.33   0.54    2  200    5  60.1  64.0 1014.1 -9.9 -9.999 -99.9 -99.99 -9.99
2019/11/18 22:00 CST    0.36   0.58    3  186    5  60.1  64.0 1014.1 -9.9 -9.999 -99.9 -99.99 -9.99
2019/11/18 22:06 CST    0.39   0.61    2  207    4  60.1  64.0 1014.1 -9.9 -9.999 -99.9 -99.99 -9.99
2019/11/18 22:12 CST    0.42   0.65    3  211    5  59.9  64.0 1014.1 -9.9 -9.999 -99.9 -99.99 -9.99
2019/11/18 22:18 CST    0.46   0.70    2  188    4  59.9  64.0 1014.1 -9.9 -9.999 -99.9 -99.99 -9.99
2019/11/18 22:24 CST    0.49   0.74    1  187    5  59.5  64.0 1014.1 -9.9 -9.999 -99.9 -99.99 -9.99
2019/11/18 22:30 CST    0.53   0.76    3  213    5  59.7  64.0 1014.1 -9.9 -9.999 -99.9 -99.99 -9.99
2019/11/18 22:36 CST    0.56   0.80    4  204    6  59.5  64.0 1014.1 -9.9 -9.999 -99.9 -99.99 -9.99
2019/11/18 22:42 CST    0.60   0.84    3  203    5  59.4  64.0 1014.0 -9.9 -9.999 -99.9 -99.99 -9.99
2019/11/18 22:48 CST    0.64   0.86    3  206    6  59.4  64.0 1014.0 -9.9 -9.999 -99.9 -99.99 -9.99
2019/11/18 22:54 CST    0.67   0.94    2  206    4  59.4  64.0 1014.0 -9.9 -9.999 -99.9 -99.99 -9.99
2019/11/18 23:00 CST    0.71   0.91    2  204    3  59.2  64.0 1014.0 -9.9 -9.999 -99.9 -99.99 -9.99
2019/11/18 23:06 CST    0.75   0.93    1  206    2  59.0  64.0 1013.8 -9.9 -9.999 -99.9 -99.99 -9.99
2019/11/18 23:12 CST    0.78   0.97    2  215    4  59.0  64.0 1013.8 -9.9 -9.999 -99.9 -99.99 -9.99
2019/11/18 23:18 CST    0.82   0.98    4  204    6  59.2  64.0 1013.7 -9.9 -9.999 -99.9 -99.99 -9.99
2019/11/18 23:24 CST    0.86   1.00    5  204    8  59.0  64.0 1013.6 -9.9 -9.999 -99.9 -99.99 -9.99
2019/11/18 23:30 CST    0.89   1.03    5  205    8  58.8  64.0 1013.6 -9.9 -9.999 -99.9 -99.99 -9.99
2019/11/18 23:36 CST    0.93   1.08    4  203    7  58.8  64.0 1013.6 -9.9 -9.999 -99.9 -99.99 -9.99
2019/11/18 23:42 CST    0.97   1.08    4  205    8  58.6  64.0 1013.6 -9.9 -9.999 -99.9 -99.99 -9.99
2019/11/18 23:48 CST    1.00   1.14    2  188    7  58.5  64.0 1013.7 -9.9 -9.999 -99.9 -99.99 -9.99
2019/11/18 23:54 CST    1.04   1.14    1  252    2  58.5  64.0 1013.7 -9.9 -9.999 -99.9 -99.99 -9.99
2019/11/19 00:00 CST    1.07   1.21    2  259    3  58.3  64.0 1013.7 -9.9 -9.999 -99.9 -99.99 -9.99
2019/11/19 00:06 CST    1.11   1.25    3  263    3  57.9  64.0 1013.7 -9.9 -9.999 -99.9 -99.99 -9.99
2019/11/19 00:12 CST    1.14   1.25    2  268    3  57.6  64.0 1013.8 -9.9 -9.999 -99.9 -99.99 -9.99
2019/11/19 00:18 CST    1.18   1.30    2  265    3  57.4  64.0 1013.8 -9.9 -9.999 -99.9 -99.99 -9.99
2019/11/19 00:24 CST    1.21   1.33    2  269    3  57.2  64.0 1013.7 -9.9 -9.999 -99.9 -99.99 -9.99
2019/11/19 00:30 CST    1.25   1.37    2  266    3  57.0  64.0 1013.8 -9.9 -9.999 -99.9 -99.99 -9.99
2019/11/19 00:36 CST    1.28   1.38    2  269    3  56.8  64.0 1013.7 -9.9 -9.999 -99.9 -99.99 -9.99
2019/11/19 00:42 CST    1.32   1.41    2  274    2  56.7  64.0 1013.7 -9.9 -9.999 -99.9 -99.99 -9.99
2019/11/19 00:48 CST    1.35   1.45    2  257    3  57.0  64.0 1013.7 -9.9 -9.999 -99.9 -99.99 -9.99
2019/11/19 00:54 CST    1.38   1.47    0  193    3  57.2  64.0 1013.7 -9.9 -9.999 -99.9 -99.99 -9.99
2019/11/19 01:00 CST    1.41   1.50    1  251    2  57.4  64.0 1013.8 -9.9 -9.999 -99.9 -99.99 -9.99
2019/11/19 01:06 CST    1.44   1.52    2  196    5  57.2  64.0 1013.8 -9.9 -9.999 -99.9 -99.99 -9.99
2019/11/19 01:12 CST    1.47   1.56    1  243    3  57.2  64.0 1013.8 -9.9 -9.999 -99.9 -99.99 -9.99
2019/11/19 01:18 CST    1.50   1.57    2  264    4  56.7  64.0 1013.8 -9.9 -9.999 -99.9 -99.99 -9.99
2019/11/19 01:24 CST    1.53   1.59    3  262    4  56.5  64.0 1013.7 -9.9 -9.999 -99.9 -99.99 -9.99
2019/11/19 01:30 CST    1.55   1.62    3  261    4  56.5  64.0 1013.7 -9.9 -9.999 -99.9 -99.99 -9.99
2019/11/19 01:36 CST    1.58   1.63    3  252    4  56.5  64.0 1013.8 -9.9 -9.999 -99.9 -99.99 -9.99
2019/11/19 01:42 CST    1.60   1.64    3  260    4  56.5  64.0 1013.7 -9.9 -9.999 -99.9 -99.99 -9.99
2019/11/19 01:48 CST    1.63   1.65    3  260    4  56.3  64.0 1013.8 -9.9 -9.999 -99.9 -99.99 -9.99
2019/11/19 01:54 CST    1.65   1.66    3  260    5  56.3  64.0 1013.8 -9.9 -9.999 -99.9 -99.99 -9.99
2019/11/19 02:00 CST    1.67   1.67    3  264    4  56.1  64.0 1013.8 -9.9 -9.999 -99.9 -99.99 -9.99
2019/11/19 02:06 CST    1.69   1.67    2  275    4  55.8  64.0 1013.9 -9.9 -9.999 -99.9 -99.99 -9.99
2019/11/19 02:12 CST    1.71   1.68    2  287    3  55.4  64.0 1013.9 -9.9 -9.999 -99.9 -99.99 -9.99
2019/11/19 02:18 CST    1.73   1.68    2  265    3  55.6  64.0 1013.9 -9.9 -9.999 -99.9 -99.99 -9.99
2019/11/19 02:24 CST    1.75   1.69    1  278    3  55.4  64.0 1013.8 -9.9 -9.999 -99.9 -99.99 -9.99
2019/11/19 02:30 CST    1.76   1.68    1  273    3  55.4  64.0 1013.8 -9.9 -9.999 -99.9 -99.99 -9.99
2019/11/19 02:36 CST    1.78   1.66    1  281    2  55.4  64.0 1013.9 -9.9 -9.999 -99.9 -99.99 -9.99
2019/11/19 02:42 CST    1.79   1.67    1  266    2  55.6  64.0 1013.9 -9.9 -9.999 -99.9 -99.99 -9.99
2019/11/19 02:48 CST    1.80   1.69    1  269    3  55.4  64.0 1013.9 -9.9 -9.999 -99.9 -99.99 -9.99
2019/11/19 02:54 CST    1.81   1.68    2  295    2  55.4  64.0 1013.9 -9.9 -9.999 -99.9 -99.99 -9.99
2019/11/19 03:00 CST    1.82   1.69    1  322    3  54.9  64.0 1013.9 -9.9 -9.999 -99.9 -99.99 -9.99
2019/11/19 03:06 CST    1.83   1.70    1  299    2  55.2  64.0 1014.0 -9.9 -9.999 -99.9 -99.99 -9.99
2019/11/19 03:12 CST    1.84   1.70    0  309    2  54.9  64.0 1014.0 -9.9 -9.999 -99.9 -99.99 -9.99
2019/11/19 03:18 CST    1.85   1.71    0  318    1  54.9  64.0 1014.0 -9.9 -9.999 -99.9 -99.99 -9.99
2019/11/19 03:24 CST    1.86   1.71    1  291    1  55.2  64.0 1014.0 -9.9 -9.999 -99.9 -99.99 -9.99
2019/11/19 03:30 CST    1.86   1.72    1  282    2  55.4  63.9 1014.1 -9.9 -9.999 -99.9 -99.99 -9.99
2019/11/19 03:36 CST    1.87   1.72    1  273    2  55.4  63.9 1014.1 -9.9 -9.999 -99.9 -99.99 -9.99
2019/11/19 03:42 CST    1.87   1.71    1  331    2  54.7  63.9 1014.0 -9.9 -9.999 -99.9 -99.99 -9.99
2019/11/19 03:48 CST    1.88   1.69    1  331    1  54.7  63.9 1014.0 -9.9 -9.999 -99.9 -99.99 -9.99
2019/11/19 03:54 CST    1.88   1.73    1  312    2  54.3  63.9 1014.1 -9.9 -9.999 -99.9 -99.99 -9.99
2019/11/19 04:00 CST    1.88   1.67    1  305    2  54.3  63.9 1014.1 -9.9 -9.999 -99.9 -99.99 -9.99
2019/11/19 04:06 CST    1.89   1.68    1  298    2  54.3  63.9 1014.1 -9.9 -9.999 -99.9 -99.99 -9.99
2019/11/19 04:12 CST    1.89   1.71    1  305    2  54.1  63.9 1014.1 -9.9 -9.999 -99.9 -99.99 -9.99
2019/11/19 04:18 CST    1.89   1.68    1  304    1  54.0  63.9 1014.1 -9.9 -9.999 -99.9 -99.99 -9.99
2019/11/19 04:24 CST    1.89   1.67    1  306    2  53.8  63.9 1014.1 -9.9 -9.999 -99.9 -99.99 -9.99
2019/11/19 04:30 CST    1.89   1.69    1  305    2  53.8  63.9 1014.2 -9.9 -9.999 -99.9 -99.99 -9.99
2019/11/19 04:36 CST    1.89   1.67    2  264    2  54.5  63.9 1014.2 -9.9 -9.999 -99.9 -99.99 -9.99
2019/11/19 04:42 CST    1.88   1.66    1  263    2  54.5  63.9 1014.2 -9.9 -9.999 -99.9 -99.99 -9.99
2019/11/19 04:48 CST    1.88   1.67    2  304    2  53.8  63.9 1014.3 -9.9 -9.999 -99.9 -99.99 -9.99
2019/11/19 04:54 CST    1.88   1.67    1  319    2  53.4  63.9 1014.2 -9.9 -9.999 -99.9 -99.99 -9.99
2019/11/19 05:00 CST    1.87   1.66    1  326    2  53.2  63.9 1014.3 -9.9 -9.999 -99.9 -99.99 -9.99
2019/11/19 05:06 CST    1.87   1.67    1  352    2  53.8  63.9 1014.3 -9.9 -9.999 -99.9 -99.99 -9.99
2019/11/19 05:12 CST    1.86   1.66    0  352    1  53.8  63.7 1014.3 -9.9 -9.999 -99.9 -99.99 -9.99
2019/11/19 05:18 CST    1.86   1.65    2  324    2  53.6  63.7 1014.3 -9.9 -9.999 -99.9 -99.99 -9.99
2019/11/19 05:24 CST    1.85   1.64    1  335    2  53.2  63.7 1014.4 -9.9 -9.999 -99.9 -99.99 -9.99
2019/11/19 05:30 CST    1.85   1.65    1  321    2  53.2  63.7 1014.4 -9.9 -9.999 -99.9 -99.99 -9.99
2019/11/19 05:36 CST    1.84   1.64    0  333    1  53.2  63.7 1014.4 -9.9 -9.999 -99.9 -99.99 -9.99
2019/11/19 05:42 CST    1.83   1.63    1  326    1  53.4  63.7 1014.5 -9.9 -9.999 -99.9 -99.99 -9.99
2019/11/19 05:48 CST    1.82   1.62    1  326    1  53.6  63.7 1014.5 -9.9 -9.999 -99.9 -99.99 -9.99
2019/11/19 05:54 CST    1.81   1.62    1  339    2  53.6  63.7 1014.6 -9.9 -9.999 -99.9 -99.99 -9.99
2019/11/19 06:00 CST    1.81   1.60    1  308    2  53.4  63.7 1014.7 -9.9 -9.999 -99.9 -99.99 -9.99
2019/11/19 06:06 CST    1.80   1.60    1  308    1  53.4  63.7 1014.8 -9.9 -9.999 -99.9 -99.99 -9.99
2019/11/19 06:12 CST    1.79   1.59    1  310    2  53.1  63.7 1014.8 -9.9 -9.999 -99.9 -99.99 -9.99
2019/11/19 06:18 CST    1.78   1.58    1  314    2  53.4  63.7 1014.9 -9.9 -9.999 -99.9 -99.99 -9.99
2019/11/19 06:24 CST    1.77   1.56    0  311    1  53.4  63.7 1015.0 -9.9 -9.999 -99.9 -99.99 -9.99
2019/11/19 06:30 CST    1.76   1.56    0  312    0  53.6  63.7 1015.1 -9.9 -9.999 -99.9 -99.99 -9.99
2019/11/19 06:36 CST    1.75   1.55    0  312    0  53.6  63.7 1015.1 -9.9 -9.999 -99.9 -99.99 -9.99
2019/11/19 06:42 CST    1.74   1.53    0  312    1  53.6  63.7 1015.0 -9.9 -9.999 -99.9 -99.99 -9.99
2019/11/19 06:48 CST    1.73   1.53    0  312    1  53.4  63.7 1015.1 -9.9 -9.999 -99.9 -99.99 -9.99
2019/11/19 06:54 CST    1.72   1.52    1  312    1  53.4  63.7 1015.2 -9.9 -9.999 -99.9 -99.99 -9.99
2019/11/19 07:00 CST    1.71   1.51    1  310    1  53.2  63.7 1015.3 -9.9 -9.999 -99.9 -99.99 -9.99
2019/11/19 07:06 CST    1.70   1.50    1  310    1  53.6  63.7 1015.4 -9.9 -9.999 -99.9 -99.99 -9.99
2019/11/19 07:12 CST    1.69   1.49    1  311    1  53.8  63.5 1015.5 -9.9 -9.999 -99.9 -99.99 -9.99
2019/11/19 07:18 CST    1.68   1.48    0  313    1  54.1  63.5 1015.6 -9.9 -9.999 -99.9 -99.99 -9.99
2019/11/19 07:24 CST    1.66   1.47    0  335    1  54.0  63.5 1015.6 -9.9 -9.999 -99.9 -99.99 -9.99
2019/11/19 07:30 CST    1.65   1.46    0    7    1  54.5  63.5 1015.8 -9.9 -9.999 -99.9 -99.99 -9.99
2019/11/19 07:36 CST    1.64   1.45    1   16    1  55.0  63.5 1015.8 -9.9 -9.999 -99.9 -99.99 -9.99
2019/11/19 07:42 CST    1.63   1.44    0   16    1  55.9  63.5 1015.9 -9.9 -9.999 -99.9 -99.99 -9.99
2019/11/19 07:48 CST    1.62   1.43    1   32    1  57.2  63.5 1015.9 -9.9 -9.999 -99.9 -99.99 -9.99
2019/11/19 07:54 CST    1.60   1.42    1   12    1  57.0  63.5 1016.0 -9.9 -9.999 -99.9 -99.99 -9.99
2019/11/19 08:00 CST    1.59   1.39    0  347    1  57.7  63.5 1016.1 -9.9 -9.999 -99.9 -99.99 -9.99
2019/11/19 08:06 CST    1.58   1.40    0  298    1  58.8  63.5 1016.2 -9.9 -9.999 -99.9 -99.99 -9.99
2019/11/19 08:12 CST    1.57   1.38    0    3    0  61.0  63.5 1016.2 -9.9 -9.999 -99.9 -99.99 -9.99
2019/11/19 08:18 CST    1.55   1.36    2  308    3  58.8  63.5 1016.2 -9.9 -9.999 -99.9 -99.99 -9.99
2019/11/19 08:24 CST    1.54   1.38    1  296    3  59.4  63.5 1016.2 -9.9 -9.999 -99.9 -99.99 -9.99
2019/11/19 08:30 CST    1.53   1.37    1  306    2  59.5  63.5 1016.2 -9.9 -9.999 -99.9 -99.99 -9.99
2019/11/19 08:36 CST    1.51   1.36    1  285    2  60.3  63.5 1016.3 -9.9 -9.999 -99.9 -99.99 -9.99
2019/11/19 08:42 CST    1.50   1.36    1  281    2  61.3  63.5 1016.3 -9.9 -9.999 -99.9 -99.99 -9.99
2019/11/19 08:48 CST    1.49   1.36    1  290    2  62.2  63.5 1016.3 -9.9 -9.999 -99.9 -99.99 -9.99
2019/11/19 08:54 CST    1.47   1.35    1  271    1  62.6  63.5 1016.3 -9.9 -9.999 -99.9 -99.99 -9.99
2019/11/19 09:00 CST    1.46   1.35    0  230    1  63.1  63.5 1016.3 -9.9 -9.999 -99.9 -99.99 -9.99
2019/11/19 09:06 CST    1.45   1.34 -999 -999 -999 -99.9 -99.9 -999.9 -9.9 -9.999 -99.9 -99.99 -9.99
2019/11/19 09:12 CST    1.44   1.32    1  219    1  64.0  63.5 1016.4 -9.9 -9.999 -99.9 -99.99 -9.99
2019/11/19 09:18 CST    1.43   1.30    1  278    2  64.8  63.5 1016.5 -9.9 -9.999 -99.9 -99.99 -9.99
2019/11/19 09:24 CST    1.42   1.30    1  291    2  64.8  63.5 1016.5 -9.9 -9.999 -99.9 -99.99 -9.99
2019/11/19 09:30 CST    1.41   1.26    2  283    3  64.9  63.5 1016.5 -9.9 -9.999 -99.9 -99.99 -9.99
2019/11/19 09:36 CST    1.40   1.24    1  281    2  66.2  63.5 1016.6 -9.9 -9.999 -99.9 -99.99 -9.99
2019/11/19 09:42 CST    1.39   1.24    1  281    2  67.1  63.3 1016.6 -9.9 -9.999 -99.9 -99.99 -9.99
2019/11/19 09:48 CST    1.38   1.21    2  291    2  66.9  63.3 1016.6 -9.9 -9.999 -99.9 -99.99 -9.99
2019/11/19 09:54 CST    1.37   1.21    2  279    3  67.5  63.3 1016.6 -9.9 -9.999 -99.9 -99.99 -9.99
2019/11/19 10:00 CST    1.36   1.20    1  273    2  68.7  63.3 1016.6 -9.9 -9.999 -99.9 -99.99 -9.99
2019/11/19 10:06 CST    1.35   1.20    1  245    2  68.9  63.3 1016.5 -9.9 -9.999 -99.9 -99.99 -9.99
2019/11/19 10:12 CST    1.34   1.19    0  245    2  69.1  63.5 1016.5 -9.9 -9.999 -99.9 -99.99 -9.99
2019/11/19 10:18 CST    1.33   1.19    1  246    2  70.0  63.5 1016.5 -9.9 -9.999 -99.9 -99.99 -9.99
2019/11/19 10:24 CST    1.33   1.18    2  278    3  70.2  63.5 1016.5 -9.9 -9.999 -99.9 -99.99 -9.99
2019/11/19 10:30 CST    1.32   1.18    1  260    2  71.2  63.5 1016.5 -9.9 -9.999 -99.9 -99.99 -9.99
2019/11/19 10:36 CST    1.31   1.16    2  282    3  70.9  63.5 1016.4 -9.9 -9.999 -99.9 -99.99 -9.99
2019/11/19 10:42 CST    1.30   1.14    2  283    3  71.4  63.5 1016.3 -9.9 -9.999 -99.9 -99.99 -9.99
2019/11/19 10:48 CST    1.30   1.12    2  231    3  70.5  63.5 1016.3 -9.9 -9.999 -99.9 -99.99 -9.99
2019/11/19 10:54 CST    1.29   1.11    1  232    2  70.9  63.5 1016.1 -9.9 -9.999 -99.9 -99.99 -9.99
2019/11/19 11:00 CST    1.28   1.10    1  241    2  71.8  63.5 1016.0 -9.9 -9.999 -99.9 -99.99 -9.99
2019/11/19 11:06 CST    1.27   1.10    1  239    2  71.8  63.5 1016.0 -9.9 -9.999 -99.9 -99.99 -9.99
2019/11/19 11:12 CST    1.27   1.10    1  266    3  73.0  63.5 1016.0 -9.9 -9.999 -99.9 -99.99 -9.99
2019/11/19 11:18 CST    1.26   1.11    1  228    3  72.3  63.5 1016.0 -9.9 -9.999 -99.9 -99.99 -9.99
2019/11/19 11:24 CST    1.25   1.12    1  204    2  72.3  63.5 1015.9 -9.9 -9.999 -99.9 -99.99 -9.99
2019/11/19 11:30 CST    1.24   1.13    1  188    2  73.0  63.5 1015.8 -9.9 -9.999 -99.9 -99.99 -9.99
2019/11/19 11:36 CST    1.23   1.13    2  187    3  72.1  63.5 1015.7 -9.9 -9.999 -99.9 -99.99 -9.99
2019/11/19 11:42 CST    1.23   1.12    0  175    3  74.1  63.5 1015.6 -9.9 -9.999 -99.9 -99.99 -9.99
2019/11/19 11:48 CST    1.22   1.11    1  201    2  72.7  63.5 1015.5 -9.9 -9.999 -99.9 -99.99 -9.99
2019/11/19 11:54 CST    1.21   1.09    1  224    3  73.9  63.5 1015.4 -9.9 -9.999 -99.9 -99.99 -9.99
2019/11/19 12:00 CST    1.20   1.07    1  215    3  73.6  63.5 1015.3 -9.9 -9.999 -99.9 -99.99 -9.99
2019/11/19 12:06 CST    1.19   1.07    1  214    4  73.8  63.5 1015.3 -9.9 -9.999 -99.9 -99.99 -9.99
2019/11/19 12:12 CST    1.18   1.04    1  216    5  73.9  63.7 1015.1 -9.9 -9.999 -99.9 -99.99 -9.99
2019/11/19 12:18 CST    1.17   1.01    2  196    4  73.2  63.7 1015.0 -9.9 -9.999 -99.9 -99.99 -9.99
2019/11/19 12:24 CST    1.16   0.99    2  207    4  73.2  63.7 1015.0 -9.9 -9.999 -99.9 -99.99 -9.99
2019/11/19 12:30 CST    1.15   0.97    1  249    4  74.5  63.7 1014.9 -9.9 -9.999 -99.9 -99.99 -9.99
2019/11/19 12:36 CST    1.15   0.95    1  239    2  75.0  63.7 1014.8 -9.9 -9.999 -99.9 -99.99 -9.99
2019/11/19 12:42 CST    1.14   0.95    2  194    4  73.8  63.7 1014.8 -9.9 -9.999 -99.9 -99.99 -9.99
2019/11/19 12:48 CST    1.13   0.94    3  202    6  74.1  63.7 1014.8 -9.9 -9.999 -99.9 -99.99 -9.99
2019/11/19 12:54 CST    1.12   0.95    1  241    6  75.4  63.9 1014.6 -9.9 -9.999 -99.9 -99.99 -9.99
2019/11/19 13:00 CST    1.11   0.95    0  271    4  76.5  63.9 1014.5 -9.9 -9.999 -99.9 -99.99 -9.99
2019/11/19 13:06 CST    1.10   0.95    4  209    7  74.7  63.9 1014.6 -9.9 -9.999 -99.9 -99.99 -9.99
2019/11/19 13:12 CST    1.09   0.92    1  322    6  76.5  63.9 1014.5 -9.9 -9.999 -99.9 -99.99 -9.99
2019/11/19 13:18 CST    1.08   0.91    4  182    8  74.3  64.0 1014.4 -9.9 -9.999 -99.9 -99.99 -9.99
2019/11/19 13:24 CST    1.07   0.89    4  176    7  74.3  64.0 1014.4 -9.9 -9.999 -99.9 -99.99 -9.99
2019/11/19 13:30 CST    1.06   0.86    3  200    5  74.1  64.0 1014.4 -9.9 -9.999 -99.9 -99.99 -9.99
2019/11/19 13:36 CST    1.05   0.84    2  212    4  76.3  64.0 1014.4 -9.9 -9.999 -99.9 -99.99 -9.99
2019/11/19 13:42 CST    1.04   0.82    2  248    6  76.6  64.0 1014.3 -9.9 -9.999 -99.9 -99.99 -9.99
2019/11/19 13:48 CST    1.03   0.80    1  205    3  77.7  64.2 1014.3 -9.9 -9.999 -99.9 -99.99 -9.99
2019/11/19 13:54 CST    1.02   0.81    4  200    7  76.1  64.2 1014.4 -9.9 -9.999 -99.9 -99.99 -9.99
2019/11/19 14:00 CST    1.00   0.77    0  217    7  77.9  64.2 1014.3 -9.9 -9.999 -99.9 -99.99 -9.99
2019/11/19 14:06 CST    0.99   0.77    3  206    4  76.5  64.2 1014.4 -9.9 -9.999 -99.9 -99.99 -9.99
2019/11/19 14:12 CST    0.98   0.79    2  200    4  75.6  64.2 1014.3 -9.9 -9.999 -99.9 -99.99 -9.99
2019/11/19 14:18 CST    0.97   0.76    4  210    6  76.1  64.2 1014.4 -9.9 -9.999 -99.9 -99.99 -9.99
2019/11/19 14:24 CST    0.95   0.76    5  209    7  75.9  64.4 1014.3 -9.9 -9.999 -99.9 -99.99 -9.99
2019/11/19 14:30 CST    0.94   0.73    5  174    6  75.0  64.4 1014.2 -9.9 -9.999 -99.9 -99.99 -9.99
2019/11/19 14:36 CST    0.92   0.70    3  169    5  76.1  64.4 1014.2 -9.9 -9.999 -99.9 -99.99 -9.99
2019/11/19 14:42 CST    0.91   0.68    4  198    9  75.6  64.4 1014.2 -9.9 -9.999 -99.9 -99.99 -9.99
2019/11/19 14:48 CST    0.89   0.66    4  152    6  75.9  64.6 1014.2 -9.9 -9.999 -99.9 -99.99 -9.99
2019/11/19 14:54 CST    0.88   0.64    4  182    9  75.2  64.6 1014.2 -9.9 -9.999 -99.9 -99.99 -9.99
2019/11/19 15:00 CST    0.86   0.63    3  185    8  75.2  64.6 1014.2 -9.9 -9.999 -99.9 -99.99 -9.99
2019/11/19 15:06 CST    0.84   0.60    3  200    8  75.4  64.6 1014.2 -9.9 -9.999 -99.9 -99.99 -9.99
2019/11/19 15:12 CST    0.82   0.57    4  195    7  75.6  64.8 1014.1 -9.9 -9.999 -99.9 -99.99 -9.99
2019/11/19 15:18 CST    0.81   0.57    3  199    7  76.1  64.8 1014.1 -9.9 -9.999 -99.9 -99.99 -9.99
2019/11/19 15:24 CST    0.79   0.57    4  199    7  75.2  64.9 1014.2 -9.9 -9.999 -99.9 -99.99 -9.99
2019/11/19 15:30 CST    0.77   0.53    1  217    4  75.4  65.1 1014.2 -9.9 -9.999 -99.9 -99.99 -9.99
2019/11/19 15:36 CST    0.75   0.51    5  206    7  75.9  65.1 1014.2 -9.9 -9.999 -99.9 -99.99 -9.99
2019/11/19 15:42 CST    0.73   0.48    3  214    6  75.6  65.1 1014.1 -9.9 -9.999 -99.9 -99.99 -9.99
2019/11/19 15:48 CST    0.71   0.48    5  196    8  75.4  65.3 1014.1 -9.9 -9.999 -99.9 -99.99 -9.99
2019/11/19 15:54 CST    0.70   0.47    4  188    8  74.5  65.3 1014.1 -9.9 -9.999 -99.9 -99.99 -9.99
2019/11/19 16:00 CST    0.68   0.43    4  191    9  74.7  65.3 1014.1 -9.9 -9.999 -99.9 -99.99 -9.99
2019/11/19 16:06 CST    0.66   0.43    4  181    8  74.5  65.5 1014.1 -9.9 -9.999 -99.9 -99.99 -9.99
2019/11/19 16:12 CST    0.64   0.42    7  189    9  74.8  65.5 1014.1 -9.9 -9.999 -99.9 -99.99 -9.99
2019/11/19 16:18 CST    0.62   0.40    7  184   10  74.5  65.5 1014.1 -9.9 -9.999 -99.9 -99.99 -9.99
2019/11/19 16:24 CST    0.60   0.38    5  208    9  74.5  65.7 1014.2 -9.9 -9.999 -99.9 -99.99 -9.99
2019/11/19 16:30 CST    0.58   0.38    6  193    8  74.1  65.7 1014.2 -9.9 -9.999 -99.9 -99.99 -9.99
2019/11/19 16:36 CST    0.56   0.35    6  184    8  73.4  65.7 1014.1 -9.9 -9.999 -99.9 -99.99 -9.99
2019/11/19 16:42 CST    0.54   0.33    6  190   10  73.2  65.8 1014.2 -9.9 -9.999 -99.9 -99.99 -9.99
2019/11/19 16:48 CST    0.52   0.36    5  194    9  73.2  65.8 1014.2 -9.9 -9.999 -99.9 -99.99 -9.99
2019/11/19 16:54 CST    0.50   0.32    4  191    9  72.7  65.8 1014.2 -9.9 -9.999 -99.9 -99.99 -9.99
2019/11/19 17:00 CST    0.48   0.31    7  195   10  73.2  66.0 1014.2 -9.9 -9.999 -99.9 -99.99 -9.99
2019/11/19 17:06 CST    0.46   0.30    3  190    7  72.3  66.0 1014.2 -9.9 -9.999 -99.9 -99.99 -9.99
2019/11/19 17:12 CST    0.44   0.28    4  190    8  71.4  66.0 1014.4 -9.9 -9.999 -99.9 -99.99 -9.99
2019/11/19 17:18 CST    0.42   0.29    4  189    7  71.4  66.0 1014.4 -9.9 -9.999 -99.9 -99.99 -9.99
2019/11/19 17:24 CST    0.40   0.28    3  186    8  70.7  66.2 1014.4 -9.9 -9.999 -99.9 -99.99 -9.99
2019/11/19 17:30 CST    0.38   0.27    5  174    7  70.9  66.2 1014.5 -9.9 -9.999 -99.9 -99.99 -9.99
2019/11/19 17:36 CST    0.36   0.28    3  167    6  70.5  66.2 1014.5 -9.9 -9.999 -99.9 -99.99 -9.99
2019/11/19 17:42 CST    0.35   0.30    4  188    7  69.6  66.2 1014.5 -9.9 -9.999 -99.9 -99.99 -9.99
2019/11/19 17:48 CST    0.33   0.27    4  192    6  68.7  66.2 1014.5 -9.9 -9.999 -99.9 -99.99 -9.99
2019/11/19 17:54 CST    0.31   0.28    3  193    7  68.9  66.2 1014.6 -9.9 -9.999 -99.9 -99.99 -9.99
2019/11/19 18:00 CST    0.29   0.26    6  194    9  69.1  66.4 1014.6 -9.9 -9.999 -99.9 -99.99 -9.99
2019/11/19 18:06 CST    0.27   0.22    6  186   11  68.7  66.4 1014.6 -9.9 -9.999 -99.9 -99.99 -9.99
2019/11/19 18:12 CST    0.25   0.22    7  195   11  68.7  66.4 1014.8 -9.9 -9.999 -99.9 -99.99 -9.99
2019/11/19 18:18 CST    0.24   0.20    6  196   10  68.0  66.4 1014.8 -9.9 -9.999 -99.9 -99.99 -9.99
2019/11/19 18:24 CST    0.22   0.18    6  193   10  67.6  66.4 1014.8 -9.9 -9.999 -99.9 -99.99 -9.99
2019/11/19 18:30 CST    0.20   0.16    5  188    8  67.5  66.4 1014.9 -9.9 -9.999 -99.9 -99.99 -9.99
2019/11/19 18:36 CST    0.19   0.15    6  195    8  67.1  66.4 1015.0 -9.9 -9.999 -99.9 -99.99 -9.99
2019/11/19 18:42 CST    0.17   0.14    5  194    8  66.9  66.4 1015.1 -9.9 -9.999 -99.9 -99.99 -9.99
2019/11/19 18:48 CST    0.16   0.12    5  189    8  66.7  66.4 1015.1 -9.9 -9.999 -99.9 -99.99 -9.99
2019/11/19 18:54 CST    0.14   0.12    4  183    9  66.6  66.4 1015.1 -9.9 -9.999 -99.9 -99.99 -9.99
2019/11/19 19:00 CST    0.13   0.10    3  167    6  66.4  66.6 1015.1 -9.9 -9.999 -99.9 -99.99 -9.99
2019/11/19 19:06 CST    0.12   0.08    4  180    8  65.8  66.6 1015.2 -9.9 -9.999 -99.9 -99.99 -9.99
2019/11/19 19:12 CST    0.10   0.04    4  161    7  66.4  66.6 1015.3 -9.9 -9.999 -99.9 -99.99 -9.99
2019/11/19 19:18 CST    0.09   0.02    4  167    7  66.0  66.6 1015.3 -9.9 -9.999 -99.9 -99.99 -9.99
2019/11/19 19:24 CST    0.08   0.01    5  164    7  66.0  66.6 1015.3 -9.9 -9.999 -99.9 -99.99 -9.99
2019/11/19 19:30 CST    0.07  -0.01    3  183    7  66.0  66.6 1015.3 -9.9 -9.999 -99.9 -99.99 -9.99
2019/11/19 19:36 CST    0.06  -0.01    4  168    8  65.7  66.6 1015.3 -9.9 -9.999 -99.9 -99.99 -9.99
2019/11/19 19:42 CST    0.06  -0.02    4  130    6  65.3  66.6 1015.4 -9.9 -9.999 -99.9 -99.99 -9.99
2019/11/19 19:48 CST    0.05  -0.03    5  147    7  64.8  66.6 1015.5 -9.9 -9.999 -99.9 -99.99 -9.99
2019/11/19 19:54 CST    0.04  -0.02    4  155    7  64.6  66.6 1015.5 -9.9 -9.999 -99.9 -99.99 -9.99
2019/11/19 20:00 CST    0.04   0.01    4  139    6  64.4  66.6 1015.6 -9.9 -9.999 -99.9 -99.99 -9.99
2019/11/19 20:06 CST    0.03   0.03    4  153    7  64.4  66.6 1015.7 -9.9 -9.999 -99.9 -99.99 -9.99
2019/11/19 20:12 CST    0.03  -0.03    3  153    6  64.2  66.6 1015.7 -9.9 -9.999 -99.9 -99.99 -9.99
2019/11/19 20:18 CST    0.03   0.00    4  149    7  64.0  66.6 1015.7 -9.9 -9.999 -99.9 -99.99 -9.99
2019/11/19 20:24 CST    0.02   0.03    4  143    7  63.9  66.6 1015.7 -9.9 -9.999 -99.9 -99.99 -9.99
2019/11/19 20:30 CST    0.02   0.04    5  153    7  63.9  66.6 1015.7 -9.9 -9.999 -99.9 -99.99 -9.99
2019/11/19 20:36 CST    0.02   0.05    3  188    6  63.7  66.6 1015.7 -9.9 -9.999 -99.9 -99.99 -9.99
2019/11/19 20:42 CST    0.02   0.04    3  163    5  63.7  66.6 1015.7 -9.9 -9.999 -99.9 -99.99 -9.99
2019/11/19 20:48 CST    0.03   0.05    4  140    7  63.7  66.6 1015.7 -9.9 -9.999 -99.9 -99.99 -9.99
2019/11/19 20:54 CST    0.03   0.06    4  139    6  63.5  66.6 1015.8 -9.9 -9.999 -99.9 -99.99 -9.99
2019/11/19 21:00 CST    0.03   0.09    4  139    6  63.5  66.4 1015.8 -9.9 -9.999 -99.9 -99.99 -9.99
2019/11/19 21:06 CST    0.04   0.09    4  153    7  63.5  66.4 1015.8 -9.9 -9.999 -99.9 -99.99 -9.99
2019/11/19 21:12 CST    0.05   0.13    4  149    7  63.5  66.4 1015.9 -9.9 -9.999 -99.9 -99.99 -9.99
2019/11/19 21:18 CST    0.05   0.16    4  148    5  63.5  66.4 1015.9 -9.9 -9.999 -99.9 -99.99 -9.99
2019/11/19 21:24 CST    0.06   0.18    4  140    5  63.3  66.4 1015.9 -9.9 -9.999 -99.9 -99.99 -9.99
2019/11/19 21:30 CST    0.07   0.20    4  154    7  63.3  66.4 1015.9 -9.9 -9.999 -99.9 -99.99 -9.99
2019/11/19 21:36 CST    0.09   0.22    4  155    6  63.1  66.4 1015.8 -9.9 -9.999 -99.9 -99.99 -9.99
2019/11/19 21:42 CST    0.10   0.26    5  147    7  63.1  66.2 1015.8 -9.9 -9.999 -99.9 -99.99 -9.99
2019/11/19 21:48 CST    0.12   0.29    5  157    7  63.1  66.2 1015.7 -9.9 -9.999 -99.9 -99.99 -9.99
2019/11/19 21:54 CST    0.13   0.29    4  146    5  63.0  66.2 1015.6 -9.9 -9.999 -99.9 -99.99 -9.99
2019/11/19 22:00 CST    0.15   0.35    3  163    7  63.0  66.2 1015.7 -9.9 -9.999 -99.9 -99.99 -9.99
2019/11/19 22:06 CST    0.17   0.38    4  185    6  62.8  66.0 1015.9 -9.9 -9.999 -99.9 -99.99 -9.99
2019/11/19 22:12 CST    0.19   0.39    4  141    6  62.8  66.0 1015.8 -9.9 -9.999 -99.9 -99.99 -9.99
2019/11/19 22:18 CST    0.21   0.46    4  135    6  62.6  66.0 1015.8 -9.9 -9.999 -99.9 -99.99 -9.99
2019/11/19 22:24 CST    0.24   0.51    4  133    6  62.4  66.0 1015.8 -9.9 -9.999 -99.9 -99.99 -9.99
2019/11/19 22:30 CST    0.26   0.52    4  144    6  62.4  65.8 1015.8 -9.9 -9.999 -99.9 -99.99 -9.99
2019/11/19 22:36 CST    0.29   0.57    5  162    7  62.6  65.8 1015.8 -9.9 -9.999 -99.9 -99.99 -9.99
2019/11/19 22:42 CST    0.31   0.61    4  165    6  62.6  65.8 1015.8 -9.9 -9.999 -99.9 -99.99 -9.99
2019/11/19 22:48 CST    0.34   0.65    6  150    7  62.8  65.8 1015.8 -9.9 -9.999 -99.9 -99.99 -9.99
2019/11/19 22:54 CST    0.37   0.69    4  156    6  62.8  65.8 1015.9 -9.9 -9.999 -99.9 -99.99 -9.99
2019/11/19 23:00 CST    0.40   0.73    3  149    5  62.8  65.7 1015.9 -9.9 -9.999 -99.9 -99.99 -9.99
2019/11/19 23:06 CST    0.43   0.79    3  139    6  62.8  65.7 1015.8 -9.9 -9.999 -99.9 -99.99 -9.99
2019/11/19 23:12 CST    0.46   0.83    5  138    7  62.8  65.7 1015.8 -9.9 -9.999 -99.9 -99.99 -9.99
2019/11/19 23:18 CST    0.49 -99.99 -999 -999 -999 -99.9 -99.9 -999.9 -9.9 -9.999 -99.9 -99.99 -9.99
2019/11/19 23:24 CST    0.53 -99.99 -999 -999 -999 -99.9 -99.9 -999.9 -9.9 -9.999 -99.9 -99.99 -9.99
2019/11/19 23:30 CST    0.56 -99.99 -999 -999 -999 -99.9 -99.9 -999.9 -9.9 -9.999 -99.9 -99.99 -9.99